GFSFLT1_850_spd_000.txt.gz
Wind_Speed
11 11 12 13 16 12 9 1 2 4 6 9 9 11 12 14 16 18 21 23 25 26 26 25 24 24 24 24 24 24 24 24
2 2 1 5 9 9 3 3 2 5 10 12 14 15 16 20 22 22 24 27 30 32 33 32 30 31 29 27 27 28 29 28
10 11 9 9 5 3 4 5 9 11 14 16 18 22 23 24 25 27 30 31 32 36 39 39 39 38 37 35 34 34 33 33
8 8 5 3 0 2 3 5 10 14 18 19 21 23 24 27 27 26 27 33 34 36 35 39 43 44 44 42 42 40 39 37
5 1 3 4 5 6 7 10 13 17 17 16 20 23 27 29 32 36 38 33 31 31 32 32 35 44 49 48 46 44 42 40
3 7 8 10 9 8 8 8 10 12 14 18 22 27 31 34 37 37 35 35 35 35 35 36 36 36 43 50 47 42 39 37
4 5 4 4 1 1 4 7 11 16 22 27 31 31 34 36 38 39 40 41 40 38 36 34 36 36 37 35 36 29 25 23
4 3 2 1 2 6 11 18 23 26 29 31 33 33 32 35 39 40 38 37 36 35 32 28 27 20 21 24 25 25 21 18
7 5 4 4 8 15 21 25 28 30 30 28 27 28 34 38 40 39 33 31 32 30 28 19 17 17 16 8 5 7 12 15
10 8 7 10 18 24 26 27 26 26 25 27 32 37 41 44 41 35 26 27 29 22 16 11 7 9 10 19 18 17 27 23
13 14 15 16 18 22 23 23 23 24 28 30 35 42 44 44 40 25 21 25 19 9 7 7 12 15 17 22 24 18 16 13
17 19 19 20 22 24 23 25 27 29 30 34 40 43 45 41 25 16 14 11 7 6 8 11 16 18 15 12 12 12 14 17
21 21 23 21 27 25 24 27 30 31 30 36 42 42 36 26 19 7 6 5 6 7 14 12 8 13 18 19 19 20 22 23
24 24 19 24 27 26 24 27 29 28 34 37 37 34 29 20 10 10 9 9 9 11 13 15 16 16 21 22 24 25 26 27
25 22 18 25 28 25 26 30 27 33 35 31 29 26 24 13 9 10 10 8 14 17 19 16 18 22 22 26 29 29 29 27
22 17 22 23 23 26 33 28 32 35 29 25 23 20 20 16 13 12 14 18 22 18 20 16 19 23 28 30 29 26 26 28
17 18 20 21 25 28 30 33 36 28 23 22 16 16 16 14 12 14 17 21 22 23 21 20 25 28 29 26 25 25 28 31
22 23 25 25 26 28 32 32 25 22 23 12 6 7 13 20 22 23 23 23 22 21 24 27 27 25 23 23 25 28 33 36
20 20 27 27 27 33 30 22 24 26 18 16 18 18 16 18 20 23 24 25 25 25 25 25 25 25 25 28 31 34 35 34

GFSFLT1_850_spd_003.txt.gz
Wind_Speed
14 10 11 10 12 14 11 7 5 2 5 9 10 13 14 17 18 20 20 22 24 26 29 31 31 32 32 30 30 30 28 26
6 7 10 12 15 14 11 7 5 3 8 10 13 17 18 20 21 23 25 25 25 26 29 33 36 39 41 41 38 36 35 33
11 11 12 10 8 9 8 9 10 11 13 16 18 19 19 20 21 24 25 27 29 34 35 35 35 37 38 40 45 45 44 41
12 11 10 9 8 9 8 8 10 12 14 14 14 15 19 23 28 32 33 34 34 33 33 34 35 34 34 34 39 45 50 46
6 5 5 6 6 6 6 7 7 7 11 15 20 24 27 28 30 32 33 34 36 37 37 36 36 36 38 37 37 39 42 47
2 3 4 3 3 3 2 4 7 13 19 24 27 28 28 31 35 39 39 40 38 37 36 34 34 34 35 36 37 38 38 41
3 2 7 9 8 4 1 8 16 23 27 29 28 28 31 34 37 40 41 41 40 37 33 30 27 27 26 26 24 20 15 17
3 4 4 3 2 8 14 20 25 28 32 31 29 28 29 34 38 41 41 39 36 31 27 25 23 21 19 12 4 9 8 4
9 5 6 9 13 18 22 25 27 34 32 28 26 27 31 38 41 40 39 35 30 25 23 18 14 10 4 5 8 9 9 13
12 12 15 17 19 24 26 28 30 23 23 23 25 29 35 39 40 37 31 24 20 17 14 9 6 5 6 8 14 17 24 18
18 19 19 20 20 19 21 20 19 21 24 25 27 32 35 38 34 28 21 17 10 8 9 7 3 3 4 7 11 13 12 11
19 19 19 21 18 20 23 22 21 23 25 25 31 34 35 30 27 21 15 10 9 8 9 11 12 17 20 15 12 13 17 16
21 20 20 15 12 22 24 19 19 22 24 30 32 29 26 26 21 18 10 10 7 9 14 19 23 20 14 16 18 18 19 21
27 21 17 12 19 22 16 21 21 25 31 33 30 26 25 21 19 14 11 12 14 17 21 22 20 17 17 19 19 22 25 26
25 19 15 17 19 17 20 23 25 31 33 29 24 23 21 19 16 15 15 14 18 21 17 18 22 21 20 21 25 29 28 25
20 15 18 18 17 19 22 24 27 28 25 23 26 21 17 15 12 14 19 20 22 22 23 24 24 23 24 28 30 27 24 24
10 13 14 18 22 23 22 28 25 19 23 23 17 18 17 16 16 19 22 23 23 23 22 23 26 26 25 24 23 23 24 26
16 17 14 16 24 23 30 29 19 23 18 13 15 16 17 17 20 24 26 25 24 23 22 23 24 23 22 21 22 25 27 30
16 17 21 20 20 29 30 22 23 22 14 14 17 19 20 22 24 24 24 24 25 26 24 22 23 23 24 25 26 27 27 27

GFSFLT1_850_spd_006.txt.gz
Wind_Speed
13 11 12 12 10 11 12 10 7 10 8 5 6 6 7 11 14 16 18 19 20 22 24 26 26 22 24 24 25 25 25 26
8 11 11 9 8 11 7 8 12 12 8 6 7 8 9 8 10 18 21 24 28 30 31 29 28 24 26 31 28 28 29 28
10 9 9 8 7 8 10 11 12 12 9 12 11 10 8 12 14 22 26 31 31 28 27 27 26 25 25 26 27 28 29 28
12 11 10 8 7 7 7 8 8 6 4 6 7 9 11 12 19 23 28 30 30 29 29 30 31 29 25 25 26 27 32 31
8 6 5 4 4 4 3 1 3 6 11 14 20 14 16 23 21 19 28 30 32 33 34 34 34 32 27 24 24 26 27 34
8 7 6 7 6 6 6 7 10 15 18 23 19 17 15 15 18 22 23 23 29 32 35 35 33 31 26 30 27 21 22 26
6 7 7 8 7 6 9 10 13 18 21 27 25 21 21 22 23 25 24 27 26 25 31 29 28 25 18 16 15 13 11 8
5 4 4 4 4 9 15 21 14 20 34 33 30 27 20 21 24 25 29 28 27 25 28 17 13 12 9 7 8 7 9 11
6 4 5 6 10 16 21 18 13 20 25 22 21 19 20 23 25 31 32 29 27 25 14 11 11 11 11 10 9 6 7 8
6 8 9 9 8 11 16 21 22 20 19 17 21 22 25 31 35 33 24 25 19 15 13 11 7 5 4 5 7 11 6 9
10 13 13 12 13 15 20 21 16 15 14 17 19 26 27 30 27 23 20 16 13 11 8 7 7 8 10 14 22 20 13 15
14 17 16 15 12 11 12 13 14 13 13 18 20 21 20 20 19 17 15 14 12 10 10 11 12 17 26 25 14 11 11 11
16 16 15 12 9 10 12 13 14 17 20 19 18 17 17 17 17 15 13 13 11 11 13 18 24 18 15 14 14 15 15 16
19 17 15 11 11 13 21 19 17 16 19 16 15 16 18 16 16 17 15 16 16 18 18 18 16 17 18 17 16 16 19 20
16 14 12 11 19 19 16 12 15 21 17 17 17 17 15 16 18 15 16 15 16 17 20 20 19 19 19 19 18 20 20 20
16 14 14 18 14 12 12 13 18 21 14 17 12 10 11 14 15 15 15 16 18 18 18 18 18 19 19 21 18 18 20 20
15 17 12 13 13 16 14 17 17 13 16 11 9 11 13 14 14 17 18 18 17 17 18 18 19 18 21 22 22 19 20 22
18 14 16 17 19 16 18 20 14 12 14 10 12 13 13 14 16 17 17 18 18 19 19 18 18 17 23 26 27 25 23 23
17 16 20 22 20 19 20 19 15 15 14 14 13 13 13 15 16 17 18 19 20 19 19 18 20 20 25 28 27 25 21 23

GFSFLT1_850_spd_009.txt.gz
Wind_Speed
14 10 9 9 8 9 11 10 9 8 7 6 6 6 6 8 8 7 9 9 14 19 20 21 22 20 22 24 26 27 29 30
8 5 5 4 4 6 9 11 13 6 6 7 7 9 9 8 8 9 10 13 23 24 18 17 19 20 23 27 29 29 30 30
8 8 9 7 7 8 7 5 2 2 4 3 5 6 6 9 8 13 13 18 21 20 20 20 20 22 25 26 26 29 30 28
12 13 12 10 9 8 7 6 5 5 4 3 5 7 10 13 15 17 17 22 21 20 20 20 21 21 23 24 25 26 31 31
9 9 9 9 10 9 8 6 4 6 2 5 10 10 12 14 16 19 23 21 20 21 21 21 21 21 22 23 22 25 26 31
8 8 8 7 7 6 5 3 4 6 6 10 13 14 19 25 23 20 21 19 20 21 22 23 27 22 20 19 19 18 19 21
5 5 5 4 4 4 4 6 8 8 9 13 16 25 33 18 19 20 19 21 22 22 23 21 20 18 17 17 17 16 17 17
3 2 1 2 3 5 7 12 13 12 14 15 14 15 16 17 19 19 23 24 23 23 20 18 17 17 17 17 17 20 13 12
3 3 6 8 9 11 13 13 15 17 16 17 18 17 16 17 18 21 22 22 23 20 19 19 19 20 19 16 11 13 16 19
5 8 9 13 15 15 14 15 17 17 17 19 16 15 16 17 19 20 21 22 22 21 21 20 16 14 13 14 14 19 20 22
12 14 15 17 17 18 15 16 17 19 18 15 14 17 17 18 20 21 22 21 21 20 19 17 15 17 20 24 24 22 20 16
15 16 16 16 17 18 17 16 14 15 16 16 16 17 17 18 20 20 19 22 19 20 17 20 22 25 28 21 17 18 18 17
17 18 14 17 17 18 18 14 19 14 14 16 17 18 20 21 19 22 20 18 18 19 20 22 21 19 19 19 20 17 18 19
19 18 23 22 18 15 19 18 15 14 16 18 19 19 19 18 17 18 17 17 18 19 21 22 23 23 23 22 21 22 20 21
17 17 21 20 17 17 16 16 16 18 18 19 19 18 16 16 15 15 17 18 19 20 20 21 21 21 22 22 18 19 22 23
16 23 22 17 14 15 17 17 19 20 20 20 20 17 16 16 15 17 18 19 19 19 19 20 20 21 22 21 23 23 22 23
19 21 18 17 17 20 22 19 19 21 21 21 20 18 16 15 16 17 18 18 19 19 20 21 21 21 24 28 30 30 26 25
23 18 17 19 21 23 23 22 22 22 22 22 21 17 17 16 16 18 18 19 19 21 21 21 21 21 25 29 34 33 26 25
16 19 21 23 25 26 28 25 28 27 25 23 20 17 19 17 18 18 19 19 21 22 21 20 21 22 26 32 34 31 24 24

GFSFLT1_850_spd_012.txt.gz
Wind_Speed
17 13 11 5 5 4 4 9 5 7 6 8 6 8 6 4 5 10 14 8 14 18 22 21 21 25 25 22 25 28 29 29
16 10 6 2 4 1 8 10 12 6 4 8 9 7 5 7 5 9 12 14 20 27 24 22 25 21 23 24 27 28 28 28
17 13 11 12 9 6 10 9 8 7 5 3 5 6 6 6 6 9 11 17 24 34 24 22 21 25 27 25 24 28 31 28
14 13 13 10 9 8 6 3 3 5 8 2 1 4 6 11 19 29 21 28 40 21 20 22 24 28 30 30 25 24 26 26
14 12 10 10 9 9 7 7 6 4 2 7 14 9 10 14 14 20 27 19 15 19 22 23 24 27 30 23 22 24 25 25
10 9 9 9 7 6 5 3 3 5 8 13 12 11 16 19 15 16 17 14 20 26 24 26 29 29 24 23 21 20 19 19
6 6 6 6 5 3 4 5 8 11 10 9 18 15 15 15 16 16 17 21 27 24 25 26 24 18 18 20 22 21 22 25
6 6 5 2 3 6 9 11 13 13 17 11 10 14 14 13 16 19 24 26 22 26 23 21 19 20 23 26 24 24 24 24
2 2 4 5 8 11 13 13 15 15 17 15 13 13 14 15 17 23 20 20 22 19 20 22 20 21 19 22 24 25 26 26
2 5 7 9 11 11 13 16 14 14 14 16 17 14 16 19 20 20 22 17 18 21 24 21 24 28 26 23 25 27 31 30
9 11 14 14 14 15 15 13 15 16 17 20 20 19 18 18 19 19 18 23 29 23 21 23 21 22 21 25 29 27 18 21
14 16 16 13 15 18 19 19 17 18 17 15 14 16 17 17 16 19 24 30 24 22 23 26 25 26 25 24 25 25 23 23
17 17 18 20 19 16 15 16 18 14 14 15 18 18 17 17 20 23 24 21 21 20 21 23 24 22 22 23 24 24 25 23
15 14 15 20 22 21 23 21 16 17 16 18 18 19 20 20 20 19 19 19 20 21 23 23 24 23 23 23 23 20 20 22
12 15 20 21 23 21 16 17 21 21 23 19 17 20 18 16 16 20 18 20 22 22 22 22 22 23 24 24 22 25 29 33
17 17 21 20 20 20 21 23 24 24 21 26 23 23 18 14 16 17 19 20 21 20 22 23 24 24 23 25 30 32 33 35
18 20 19 19 20 23 25 28 28 18 23 27 28 23 17 13 20 14 16 20 20 22 22 24 23 21 24 29 32 33 34 36
19 17 19 20 22 25 28 28 29 35 29 23 21 24 21 15 16 11 14 19 21 23 25 22 19 19 24 32 35 36 36 37
16 19 21 21 26 26 27 29 33 35 35 32 29 19 11 15 15 10 14 18 22 24 22 21 22 29 33 30 32 31 35 32

GFSFLT1_850_spd_015.txt.gz
Wind_Speed
22 19 18 13 11 7 11 11 6 10 15 10 8 6 4 6 4 6 10 12 15 16 22 35 36 33 31 28 27 28 29 29
23 23 17 14 19 20 22 22 19 14 14 10 10 9 6 3 5 8 10 15 19 26 28 28 25 28 28 28 28 26 28 29
20 14 18 15 10 6 6 6 11 8 8 8 8 6 4 5 8 10 17 19 24 23 25 19 21 23 27 31 30 32 27 26
16 14 13 10 9 4 2 1 1 4 3 4 5 5 9 12 15 20 20 21 26 22 18 21 24 27 28 29 32 26 29 29
16 12 10 8 8 6 8 10 11 10 9 11 15 14 13 15 18 18 20 23 22 18 22 26 31 29 30 27 20 21 23 25
14 8 7 7 7 8 7 7 13 18 17 18 14 10 11 7 12 17 19 20 22 23 28 28 24 22 19 21 22 24 25 25
4 5 3 5 6 9 9 3 3 11 11 9 12 13 13 14 20 23 22 25 28 26 22 21 18 20 22 24 26 31 30 27
13 12 8 2 5 5 4 7 13 15 11 11 12 15 17 19 21 23 24 24 23 21 21 23 26 24 23 23 23 24 23 24
7 2 1 2 4 4 7 10 11 12 14 16 15 16 18 19 20 23 20 20 18 19 21 29 22 24 25 25 22 22 25 28
10 13 8 3 5 8 9 10 10 14 15 16 17 17 19 18 20 15 17 16 19 26 31 24 25 29 27 27 28 27 25 23
14 12 10 9 9 13 17 18 18 16 17 19 21 21 17 17 13 14 16 21 29 31 23 21 23 23 24 23 23 22 22 21
13 12 13 14 16 17 17 19 20 22 22 24 26 24 19 19 23 26 26 31 27 20 17 17 22 22 22 24 24 24 23 23
10 11 12 16 21 23 25 24 18 15 22 26 20 24 25 26 27 25 28 25 19 15 17 23 22 22 24 23 24 25 26 25
8 10 18 19 22 25 19 19 18 24 28 25 22 19 25 25 27 26 19 20 21 19 20 21 21 24 26 26 26 26 25 29
14 20 19 19 18 18 19 23 23 27 29 28 35 37 26 20 19 15 16 22 19 18 18 19 23 24 24 23 26 30 34 37
18 19 17 16 18 19 17 23 24 25 28 32 34 26 20 23 34 25 21 16 15 13 17 21 20 22 25 27 30 33 36 40
20 15 16 18 19 21 24 19 19 25 32 33 33 28 29 33 26 19 13 13 14 16 20 19 19 21 26 29 31 35 36 32
16 16 18 21 19 16 15 21 26 29 29 33 27 33 37 30 20 13 15 15 13 19 18 18 19 27 26 28 34 31 29 30
17 17 17 19 15 19 22 26 30 30 32 30 33 37 37 29 19 17 10 12 18 16 15 20 25 23 27 29 28 29 31 30

GFSFLT1_850_spd_018.txt.gz
Wind_Speed
14 14 17 19 25 26 23 11 12 10 12 15 14 12 10 6 6 4 3 6 10 15 19 27 34 30 33 30 29 30 29 30
29 28 23 21 22 19 18 9 16 14 14 14 12 8 5 4 3 3 6 12 16 20 26 30 29 26 23 25 31 32 34 36
27 26 24 21 17 11 9 12 13 16 13 8 5 4 4 3 6 10 14 18 23 26 28 23 21 23 25 29 33 35 34 29
22 20 19 16 16 13 10 7 5 2 2 2 1 5 12 13 16 20 24 23 22 25 20 21 25 28 30 29 26 24 25 25
20 17 14 11 12 10 8 8 7 5 5 10 14 19 21 23 24 23 19 22 23 22 27 29 27 23 24 23 22 22 22 23
15 11 9 9 9 9 10 12 14 12 12 15 18 18 18 20 20 21 21 20 20 27 25 19 23 22 22 22 22 22 23 24
8 7 7 7 7 6 5 4 5 9 13 15 15 16 16 15 16 17 18 21 28 25 21 23 23 28 23 20 19 19 20 16
6 4 3 5 5 3 3 4 9 10 11 12 14 14 15 17 19 20 30 28 22 21 22 24 29 22 20 20 21 19 21 25
11 8 7 4 6 5 5 9 13 13 14 15 16 18 21 23 21 27 28 27 23 18 21 26 23 21 20 19 19 20 19 17
21 17 12 8 5 7 9 12 14 15 17 20 23 25 28 27 32 30 30 25 19 20 23 23 21 19 20 19 18 19 20 17
14 11 8 9 10 11 13 15 17 19 20 19 23 26 26 31 26 25 26 23 22 21 27 23 17 16 20 19 20 21 19 21
12 8 6 8 12 16 17 14 14 14 17 21 25 27 27 28 25 25 26 24 22 21 25 21 21 25 22 22 23 23 24 23
10 8 10 14 18 16 14 13 13 16 20 22 23 26 29 29 30 34 32 27 19 20 20 20 23 23 23 25 26 25 24 26
6 10 16 17 12 12 14 15 15 18 19 15 22 24 27 29 30 29 13 16 30 13 19 24 21 20 25 24 27 24 25 28
10 13 10 9 10 14 16 14 18 20 21 20 26 30 25 23 25 25 31 35 24 11 17 15 19 21 22 25 25 27 28 31
11 8 6 9 13 12 13 16 17 18 23 28 32 32 27 30 29 29 31 23 16 12 11 16 20 20 20 24 28 28 32 34
6 5 8 10 8 13 11 15 21 25 28 29 29 31 31 33 35 26 17 17 6 13 14 17 19 17 25 24 28 32 30 28
5 8 8 9 11 12 17 20 24 24 23 24 31 30 33 38 27 24 19 17 6 11 15 17 17 24 22 27 28 28 28 29
7 6 10 9 13 16 19 23 20 20 23 29 29 32 36 32 21 23 16 5 13 12 11 17 23 22 25 27 29 29 29 30

GFSFLT1_850_spd_021.txt.gz
Wind_Speed
13 16 14 26 34 35 26 17 6 11 16 10 12 11 9 7 8 9 11 11 13 16 18 23 29 30 32 34 32 31 33 36
15 14 14 18 25 25 15 5 12 6 8 8 7 5 2 1 5 8 12 14 17 22 25 29 32 34 34 32 33 34 35 31
24 20 17 16 10 5 7 5 10 7 6 5 1 9 9 11 14 16 18 22 26 24 30 32 31 29 30 30 31 29 26 25
19 14 12 14 15 13 9 9 6 4 4 5 4 7 11 17 19 21 21 20 18 20 22 23 27 28 24 22 24 24 24 23
20 20 19 18 15 12 9 8 7 5 5 6 8 11 14 15 17 18 18 18 21 21 24 33 26 23 25 25 24 23 22 22
19 18 16 13 11 9 6 4 1 2 5 9 12 13 14 15 15 13 16 20 26 35 30 21 25 28 28 23 20 19 19 19
18 16 15 14 10 5 3 1 3 7 10 10 11 11 11 9 12 18 25 27 29 26 25 26 26 27 24 21 19 18 18 20
17 15 13 12 8 4 4 3 7 9 8 9 11 12 13 16 20 22 24 25 28 25 25 23 24 24 21 19 20 20 19 18
12 11 9 7 7 4 2 6 10 11 13 13 13 14 16 23 26 28 29 28 26 22 18 20 21 21 20 19 19 18 18 21
12 12 11 8 3 2 7 10 12 13 12 12 19 21 24 26 25 28 26 26 23 18 20 17 23 15 19 20 18 19 19 19
18 13 9 4 2 8 12 12 12 11 13 15 18 20 21 22 25 26 25 23 19 22 26 32 20 17 17 19 18 19 23 23
14 10 5 3 7 8 7 7 8 11 13 14 16 15 17 20 23 22 23 21 28 25 26 19 19 19 19 18 21 23 25 25
10 5 1 2 2 4 7 10 13 13 15 19 20 18 24 27 21 21 25 29 28 28 32 22 18 19 19 20 22 24 25 26
6 1 1 1 3 6 9 11 12 15 18 17 19 26 31 26 23 25 27 27 28 31 30 21 15 20 19 23 24 23 23 27
1 1 1 2 3 7 8 12 15 15 18 22 28 29 26 26 26 30 32 24 27 24 21 15 13 15 22 20 20 25 27 28
2 2 2 4 6 8 10 13 14 20 24 27 26 27 27 28 31 35 25 21 23 22 15 10 14 17 17 19 24 27 30 32
2 2 5 8 7 9 10 15 19 24 28 25 22 23 27 29 34 30 21 18 20 19 13 11 15 17 19 22 27 29 30 31
3 5 6 7 6 10 15 19 23 24 21 18 20 24 28 33 32 24 21 20 12 7 12 14 15 18 20 25 28 28 29 30
6 6 7 7 10 13 17 22 22 19 16 19 24 29 33 32 26 19 15 8 9 11 13 11 16 20 25 27 28 28 29 30

GFSFLT1_850_spd_024.txt.gz
Wind_Speed
15 18 22 22 25 27 27 23 18 14 12 9 11 10 5 4 5 10 9 13 14 17 23 22 22 25 27 31 34 35 34 33
11 11 12 17 17 21 20 18 11 7 6 3 7 4 5 12 8 8 14 14 17 20 22 21 26 28 29 33 36 32 28 28
12 11 9 9 15 11 6 6 11 4 3 4 3 7 7 9 12 14 16 18 22 23 22 25 28 32 34 29 26 27 25 24
21 18 16 19 20 17 16 14 8 4 3 5 6 9 9 12 14 17 19 21 21 19 23 29 31 26 24 26 26 23 23 22
19 21 24 20 19 17 15 13 9 5 2 4 7 10 13 16 18 18 17 16 20 24 26 24 23 24 25 24 23 22 20 19
21 20 18 17 16 14 11 7 5 4 5 8 11 14 15 15 14 13 15 20 22 23 22 23 23 23 24 22 20 18 17 18
20 19 15 14 13 11 9 6 3 4 7 9 10 10 9 8 11 14 18 20 21 24 24 27 26 25 23 21 21 19 18 18
19 18 16 12 11 8 4 2 4 5 6 7 8 9 9 13 16 17 19 20 22 23 24 21 19 22 23 29 20 21 20 19
19 19 15 14 10 9 6 3 6 8 9 9 7 11 13 13 15 18 21 22 24 24 23 21 24 30 30 20 16 18 18 18
18 18 17 14 11 6 1 7 8 6 5 7 9 11 13 16 18 20 22 22 24 24 24 27 29 32 20 16 16 17 16 16
22 20 16 12 5 2 6 6 7 7 10 11 12 15 18 18 19 24 23 20 21 24 28 29 29 25 16 16 18 15 17 20
22 18 12 5 2 4 7 8 10 11 13 15 16 14 16 21 25 22 17 18 22 26 28 26 27 24 17 17 15 18 22 23
16 11 6 3 1 8 8 9 10 11 12 13 13 16 22 22 20 19 21 27 26 23 24 24 29 25 14 18 13 20 23 23
12 8 5 4 5 4 7 7 8 11 12 14 19 22 21 21 24 26 29 31 26 22 20 26 21 10 14 12 18 20 22 26
10 7 6 5 5 7 8 8 11 11 15 20 22 21 21 24 26 29 33 29 22 19 22 23 15 13 12 18 18 20 27 30
8 7 7 5 7 8 7 9 11 16 20 22 18 17 20 26 30 32 32 24 20 18 20 18 11 14 17 14 19 25 29 32
8 8 8 8 7 7 9 11 15 20 20 18 17 19 25 28 31 32 26 22 20 18 16 10 12 13 15 19 22 28 30 30
11 10 8 7 8 8 10 14 18 18 18 18 17 23 27 30 29 26 21 20 12 6 10 13 11 14 19 22 27 28 28 29
11 9 8 9 9 10 13 16 18 17 16 17 22 25 28 28 24 23 18 15 12 13 13 9 14 17 22 25 26 25 27 27

GFSFLT1_850_spd_027.txt.gz
Wind_Speed
15 17 18 15 16 19 21 22 19 5 13 17 6 8 6 3 3 12 10 9 13 13 15 16 16 20 24 28 29 26 26 27
10 11 9 14 13 13 16 17 17 11 5 5 4 7 2 7 4 6 6 10 11 13 12 15 20 25 27 26 26 27 25 25
9 9 9 9 8 9 12 9 7 7 6 6 4 5 4 4 6 7 9 10 11 13 16 21 24 21 22 24 24 26 25 24
19 17 17 18 16 15 13 12 11 9 7 7 8 4 5 7 9 11 11 12 15 19 23 24 20 21 24 26 26 23 22 19
22 24 24 23 21 20 18 15 13 11 10 7 5 7 9 11 12 11 11 14 18 18 20 21 21 22 26 26 27 23 20 14
26 26 24 23 19 17 15 13 13 9 6 6 8 10 11 10 9 9 13 17 18 18 20 22 23 23 23 23 24 24 17 14
24 23 21 20 18 17 15 12 10 8 7 8 9 9 8 8 10 12 14 16 18 20 20 22 23 23 24 24 28 17 15 13
24 23 22 21 19 16 13 11 8 6 5 7 8 8 8 10 13 15 16 19 20 21 23 22 22 22 24 26 25 16 13 13
22 20 18 16 16 15 13 9 5 4 5 5 6 8 10 11 13 16 17 19 21 22 22 22 22 24 23 24 21 15 15 15
21 19 17 16 16 14 9 5 2 2 3 5 6 7 9 11 13 16 21 23 21 20 20 23 24 25 24 24 22 15 16 16
21 19 18 18 14 10 6 1 2 4 6 7 6 8 10 14 19 23 23 20 20 22 25 25 26 27 27 22 27 17 14 18
22 21 19 16 11 7 3 2 4 6 8 8 9 10 14 20 23 21 20 21 24 26 24 24 23 24 24 28 15 12 17 19
22 20 16 12 9 5 2 4 6 10 7 9 11 15 20 22 20 20 22 26 28 26 23 19 17 21 27 17 11 14 17 20
21 19 14 12 8 3 3 9 11 6 9 10 16 20 20 17 16 21 27 30 29 24 20 17 21 23 12 11 11 17 20 20
21 17 13 10 6 4 8 9 7 9 10 15 18 17 15 15 21 27 30 29 25 22 19 17 17 14 9 12 16 16 19 25
20 16 13 8 5 7 9 9 9 9 14 17 17 16 15 20 26 29 28 24 22 21 16 13 11 9 13 11 15 20 25 28
19 15 12 10 8 9 9 8 8 13 16 16 15 15 18 24 27 26 24 22 20 15 9 8 9 13 11 16 19 24 27 27
20 16 13 9 10 9 8 8 12 15 16 15 12 17 21 24 24 23 23 20 16 12 11 12 11 10 15 19 25 26 25 25
19 16 13 10 10 9 9 11 14 16 15 14 16 19 21 23 23 22 20 16 14 14 15 13 11 14 18 24 25 23 23 24

GFSFLT1_850_spd_030.txt.gz
Wind_Speed
11 12 12 14 16 16 18 20 21 19 16 13 12 9 4 5 7 5 9 9 8 10 11 13 14 11 14 23 23 17 18 19
12 13 13 14 16 17 17 15 18 14 11 6 7 5 8 6 6 6 8 9 9 9 8 12 17 19 23 21 17 17 19 18
11 12 13 14 15 16 15 14 12 7 10 10 9 9 8 8 7 8 9 8 8 10 14 15 19 11 11 16 16 17 16 18
12 13 15 15 16 16 15 13 14 15 13 12 11 9 6 6 8 8 10 11 11 13 15 13 12 15 14 13 15 15 19 18
15 16 17 18 18 17 16 16 16 14 13 8 7 6 5 6 6 7 6 10 13 12 16 20 22 18 15 15 15 17 18 18
19 19 19 17 21 20 17 16 13 14 12 9 6 5 5 4 3 4 6 8 13 15 18 22 22 16 16 14 14 20 18 17
19 18 18 17 15 16 19 17 15 14 12 9 6 5 2 1 3 6 9 12 14 15 16 20 19 18 16 15 18 20 17 16
20 19 18 15 14 15 14 13 12 11 8 5 3 1 2 2 5 8 12 14 16 18 19 19 19 20 18 17 19 19 15 17
20 19 17 15 15 13 13 12 11 8 6 3 5 6 3 5 7 10 12 14 17 17 17 17 18 18 19 20 20 20 17 17
20 18 17 15 14 13 12 10 8 6 3 2 5 6 7 6 10 12 11 13 14 16 17 19 20 20 20 21 21 21 19 16
20 18 16 15 14 15 13 9 6 4 2 3 4 6 7 10 11 9 11 12 15 18 21 21 21 21 21 20 22 21 18 15
20 18 16 16 14 14 11 9 5 5 4 7 5 5 9 9 8 10 11 15 18 20 21 20 19 19 18 19 20 17 14 15
20 19 19 17 16 13 12 10 7 5 7 4 4 9 9 9 10 11 13 17 19 20 19 18 16 16 17 18 17 11 13 15
21 21 21 19 16 14 12 10 6 7 6 5 6 8 10 10 11 13 16 19 19 17 17 16 16 16 15 12 8 10 12 13
23 23 21 19 17 15 13 8 11 10 6 6 9 10 11 11 12 15 18 18 17 16 16 15 12 10 8 7 9 8 13 16
24 23 21 19 17 16 11 12 12 10 9 9 11 11 11 11 13 16 17 16 15 15 14 12 10 8 7 7 8 13 16 18
24 23 21 19 18 15 11 12 11 11 11 10 11 11 10 12 15 17 15 15 14 14 11 9 8 7 13 11 15 16 17 16
25 23 21 18 17 14 12 12 12 11 12 12 11 11 12 13 15 14 14 14 14 13 11 11 10 9 12 15 19 21 15 14
23 21 18 16 13 12 12 12 10 13 13 10 10 12 12 14 14 14 14 14 13 13 12 11 10 11 14 18 22 18 14 14

GFSFLT1_850_spd_033.txt.gz
Wind_Speed
14 14 15 16 16 16 17 18 19 17 15 17 17 19 14 9 7 5 5 8 9 4 4 8 9 8 9 12 17 17 18 21
13 13 15 17 18 17 18 20 17 14 14 10 13 9 11 8 5 7 5 6 5 4 3 6 9 10 11 13 15 18 18 19
14 15 16 17 18 19 20 17 15 11 7 8 8 9 7 4 6 6 6 5 4 4 8 6 9 10 13 15 16 17 18 18
16 16 17 17 18 19 20 15 11 11 12 12 11 10 7 6 5 3 5 6 4 7 8 9 10 13 15 16 16 16 20 19
17 17 17 18 19 17 15 14 15 15 14 11 10 7 6 7 6 7 5 7 6 6 9 11 13 14 15 16 16 17 19 23
18 18 18 18 18 17 16 17 17 16 13 11 9 7 5 3 3 5 5 7 8 10 12 13 15 17 18 19 19 19 20 22
20 21 21 20 17 18 17 18 16 14 11 10 9 9 6 4 5 6 7 9 11 12 14 16 18 20 20 19 19 20 21 23
22 22 21 19 18 18 18 17 15 13 12 10 9 7 6 5 6 7 8 9 11 13 15 17 17 18 19 20 24 25 23 24
22 21 20 18 17 17 17 16 14 13 12 10 8 6 5 4 6 7 7 9 11 13 14 15 17 18 19 21 22 22 23 22
22 21 20 18 18 18 17 17 15 14 13 11 9 5 5 7 6 6 7 9 10 12 15 17 19 20 21 21 23 23 25 24
22 22 20 19 18 18 18 18 17 16 13 10 6 6 5 6 6 7 7 8 11 13 16 17 18 19 19 20 21 23 20 20
22 21 21 20 19 19 19 18 18 15 12 8 5 5 8 7 7 7 8 10 12 15 16 17 17 18 17 17 19 20 19 15
24 23 22 21 21 20 20 19 17 14 11 9 7 9 8 9 9 9 10 12 14 16 16 16 17 17 18 19 18 14 12 13
24 23 23 23 22 21 21 19 16 15 9 6 8 10 10 10 11 11 12 14 16 16 15 16 17 17 16 12 11 10 12 10
24 24 24 23 22 22 21 19 17 11 10 9 11 12 11 12 12 12 13 15 16 15 15 16 16 14 13 10 8 9 9 13
23 24 24 24 23 22 21 18 14 14 9 11 12 12 11 12 13 13 14 15 15 15 16 15 14 12 10 9 9 11 13 16
22 23 23 24 23 22 20 18 14 10 10 13 11 11 11 12 13 14 15 15 15 15 15 14 13 12 17 14 12 15 15 16
21 23 23 23 22 21 21 16 11 11 12 11 11 11 11 12 13 15 15 15 16 16 16 15 14 13 18 16 15 17 16 13
18 20 21 21 20 21 16 13 11 11 9 10 10 11 11 12 14 16 16 15 17 16 15 14 13 14 19 18 17 20 12 13

GFSFLT1_850_spd_036.txt.gz
Wind_Speed
20 18 18 18 19 23 21 24 22 19 15 18 14 12 19 14 11 5 6 4 5 4 7 9 9 6 11 16 20 21 21 18
19 17 16 18 24 23 20 25 20 19 16 17 15 13 11 7 6 5 3 4 3 6 4 6 10 6 9 12 17 17 17 16
17 18 18 20 21 20 19 21 16 17 9 9 8 8 7 5 5 5 8 5 3 3 9 8 9 14 14 12 16 19 20 15
19 19 19 22 20 22 21 20 15 14 13 11 12 9 11 13 10 6 8 5 5 8 9 12 13 12 12 16 18 18 17 21
22 19 20 21 23 22 22 21 14 17 18 15 14 14 9 8 4 8 10 9 9 8 8 12 15 17 18 16 16 20 26 21
25 20 22 23 23 23 20 15 18 20 18 13 13 10 11 16 15 12 5 7 10 8 9 11 13 15 16 20 22 22 21 19
17 19 17 19 16 18 20 19 20 18 20 15 16 15 10 8 6 5 3 7 8 11 13 15 18 20 22 20 20 23 25 28
19 22 22 26 24 22 24 21 19 17 16 15 16 17 15 15 9 6 9 11 11 15 17 21 21 18 19 20 22 24 26 26
19 22 22 21 22 22 21 23 20 19 17 15 14 15 12 10 11 11 16 13 15 17 17 14 17 17 20 21 22 22 23 23
23 23 24 23 22 23 23 22 20 19 18 18 17 16 15 13 12 12 12 11 12 12 15 18 18 19 21 21 21 21 22 23
23 25 24 23 21 21 22 21 21 21 22 20 19 15 12 8 8 9 11 13 13 13 14 16 17 18 18 18 19 20 22 25
24 25 25 21 21 21 21 22 21 24 21 19 18 13 13 10 6 10 13 13 13 12 14 16 16 15 17 21 23 19 17 15
26 25 24 22 21 21 22 22 22 21 19 19 16 17 7 8 9 12 14 13 12 13 15 15 14 17 19 19 21 15 14 12
25 27 26 24 22 24 21 22 22 19 21 20 15 8 11 13 10 12 14 14 14 15 16 15 15 18 19 17 15 16 14 12
23 24 26 25 23 23 22 23 22 21 21 13 12 15 12 12 14 14 15 15 17 17 15 14 17 18 19 17 12 10 9 11
20 20 19 21 21 23 22 23 21 21 16 20 13 9 15 15 13 15 16 17 20 17 15 15 19 21 14 13 13 16 16 17
11 13 16 17 20 23 22 21 22 21 21 13 13 13 10 13 13 15 16 17 16 16 18 17 19 16 19 19 21 18 17 18
9 13 16 18 19 22 21 22 24 20 13 10 13 12 13 12 12 13 16 18 18 19 18 19 21 20 21 20 19 17 17 17
8 10 14 15 15 14 17 19 13 12 13 8 9 12 12 12 14 15 15 18 19 19 20 20 20 19 22 21 19 18 18 16

GFSFLT1_850_spd_039.txt.gz
Wind_Speed
26 23 23 21 22 22 28 28 23 20 20 25 25 19 12 10 10 7 8 8 6 5 6 6 9 10 11 13 18 22 24 26
24 22 26 29 25 28 28 27 25 27 26 29 23 15 13 11 8 10 9 7 6 6 8 8 8 7 11 14 17 20 24 24
28 27 30 31 32 36 30 28 23 26 22 19 16 15 12 10 11 11 9 7 8 8 9 11 13 14 16 18 18 20 20 21
30 29 20 30 36 35 29 22 19 22 20 14 15 12 14 15 12 9 10 10 8 7 10 13 14 15 17 18 18 18 18 21
29 27 21 25 32 28 22 18 19 16 21 22 17 16 16 11 6 10 11 9 6 8 10 12 13 14 16 16 15 19 22 24
33 31 32 25 24 25 21 19 14 23 21 23 17 13 13 14 16 14 10 6 3 2 6 10 12 15 17 20 22 23 18 19
35 30 30 27 24 24 21 20 20 23 24 23 16 18 23 19 21 17 11 8 10 10 12 14 16 19 21 25 23 21 22 23
33 30 30 28 27 27 28 25 25 22 28 22 23 22 21 21 18 18 16 15 14 16 20 21 23 26 25 21 21 21 21 21
26 27 26 24 21 22 24 25 25 30 30 27 25 23 22 22 21 20 19 19 21 18 24 24 24 22 22 22 22 21 20 20
21 23 23 22 24 22 25 26 30 27 26 27 28 28 26 23 20 18 17 17 18 19 19 18 20 21 20 18 16 16 18 20
22 24 25 28 29 24 21 22 24 25 25 26 27 25 22 19 17 13 15 12 16 18 19 17 18 19 17 17 19 20 22 23
27 27 26 26 25 24 24 22 21 23 25 26 25 23 20 17 13 11 10 12 19 19 19 18 19 16 15 20 23 28 22 17
29 29 29 28 27 24 23 27 23 24 27 28 25 21 15 14 9 9 11 16 20 21 19 20 19 16 17 22 25 24 19 19
30 31 33 33 30 29 29 28 27 22 26 24 22 19 15 10 16 14 12 18 18 19 21 23 18 18 20 23 22 19 18 14
32 35 36 38 37 33 30 29 29 26 23 22 19 14 12 15 9 10 18 16 17 22 25 24 18 20 22 23 24 19 18 16
26 31 35 34 32 29 27 24 25 29 24 23 16 15 14 13 18 14 15 26 22 23 24 20 20 23 25 26 22 17 18 19
7 5 20 27 29 26 24 24 29 29 24 21 19 16 13 6 9 14 16 16 22 22 23 23 25 24 25 26 23 20 20 21
8 2 4 14 18 17 25 25 27 26 23 18 11 8 11 14 14 13 15 19 22 23 25 25 23 24 25 27 24 22 20 20
10 6 5 8 10 16 20 22 22 20 15 13 9 7 4 4 7 10 17 19 22 24 22 24 28 26 24 25 24 22 21 21

GFSFLT1_850_spd_042.txt.gz
Wind_Speed
38 36 33 29 30 32 36 36 33 28 27 25 23 22 20 15 11 8 6 12 12 11 10 10 8 9 10 12 14 18 19 21
41 42 39 34 28 33 37 36 33 28 28 27 27 26 23 16 12 10 9 12 11 12 11 8 9 9 10 14 17 18 19 19
43 43 40 34 30 30 31 33 30 28 26 26 25 24 22 16 13 12 13 13 13 13 10 10 10 11 14 16 16 17 17 19
44 44 39 34 35 32 28 27 29 28 28 26 26 23 21 20 18 17 18 16 14 11 9 10 12 14 15 15 16 17 18 20
44 43 41 40 39 33 29 29 29 26 29 29 26 25 25 23 22 19 18 16 13 11 12 13 14 15 16 17 18 19 21 22
43 42 42 40 39 36 31 29 26 19 22 28 25 19 20 19 20 19 18 16 16 16 15 13 13 16 18 17 18 21 23 22
44 40 37 36 35 33 30 29 24 22 24 31 28 23 21 22 23 23 19 18 17 16 14 13 15 17 18 19 22 22 21 22
43 40 33 31 31 30 27 27 23 23 28 29 29 26 24 24 24 27 22 21 19 15 13 14 18 20 20 23 22 22 21 21
40 37 34 31 31 28 28 28 25 24 29 29 30 28 25 24 23 25 24 21 18 17 15 18 18 19 19 21 23 21 19 20
38 36 33 32 30 26 24 25 25 27 28 28 31 29 25 23 23 23 21 17 14 16 14 15 18 24 23 22 21 20 21 23
28 32 30 25 25 26 24 22 25 28 27 30 26 22 24 23 21 19 20 18 21 14 18 14 20 20 21 22 19 20 24 27
24 25 27 26 25 27 25 24 24 26 30 31 28 26 24 22 20 19 18 14 18 20 17 17 20 22 22 22 22 23 25 28
27 26 27 28 27 28 27 28 29 29 29 30 28 28 27 25 21 19 20 25 22 13 19 18 21 23 25 24 22 24 25 26
32 32 34 34 34 32 32 32 29 29 29 29 30 28 25 23 22 24 17 16 9 18 18 18 22 24 24 21 23 26 25 23
35 37 37 39 38 37 38 31 29 29 28 31 31 27 23 24 23 22 18 9 12 13 18 19 23 26 21 20 23 26 26 23
30 33 38 39 38 38 34 30 32 32 30 31 27 22 20 18 17 12 12 8 7 14 14 20 23 23 23 22 25 27 25 22
5 7 31 31 34 35 31 33 30 28 28 26 25 24 21 19 17 9 6 5 4 13 24 20 23 26 26 26 24 25 25 21
9 6 3 8 17 20 25 31 31 28 26 23 20 18 16 10 6 6 6 6 16 23 16 23 24 25 25 25 23 23 24 25
9 8 7 11 16 21 25 26 25 27 25 22 18 15 11 10 6 6 19 19 15 19 23 23 22 27 27 25 23 23 25 26

GFSFLT1_850_spd_045.txt.gz
Wind_Speed
30 32 32 31 30 29 29 29 28 28 29 27 26 26 23 20 18 14 11 17 18 17 15 14 13 11 10 9 12 14 14 15
30 29 32 34 31 32 32 30 32 32 32 30 31 29 25 23 19 14 13 15 16 17 16 13 10 8 9 12 14 13 14 15
35 34 35 33 32 33 35 34 34 34 34 32 32 29 26 22 18 15 14 15 16 16 14 11 10 10 12 13 13 13 15 16
38 41 39 37 37 35 35 37 36 35 32 31 30 30 26 25 22 17 15 15 14 14 13 12 12 13 12 13 15 16 16 18
42 44 43 41 41 38 34 37 39 37 33 34 34 32 29 25 22 18 17 17 14 16 15 14 14 13 12 13 15 18 19 19
48 49 45 42 44 41 39 40 37 36 35 33 31 31 27 23 21 20 19 18 18 18 15 15 14 13 12 13 18 19 21 22
46 46 44 45 46 43 42 39 36 33 30 30 29 33 28 22 19 22 21 20 20 19 18 16 15 12 9 16 19 21 23 22
48 45 45 45 45 43 40 39 38 33 33 25 26 29 25 22 20 24 25 24 24 23 20 16 13 12 20 18 20 22 21 20
46 48 47 46 42 39 39 37 39 33 33 29 27 28 25 22 23 25 27 28 29 29 24 23 18 19 16 17 18 22 22 19
44 45 46 43 39 37 36 32 30 28 30 27 27 29 27 28 29 29 28 29 27 21 19 19 23 19 23 14 16 18 17 16
37 42 41 37 34 32 32 26 25 25 30 28 28 29 28 31 29 27 31 32 27 27 26 22 25 17 10 14 17 17 17 19
19 24 31 31 32 29 29 26 24 26 27 26 30 29 31 30 28 30 31 31 32 28 25 17 14 9 12 16 19 18 19 20
17 16 21 27 28 27 29 29 28 28 28 30 27 28 27 27 30 30 30 29 23 20 15 12 10 11 14 18 18 18 19 20
23 25 22 22 25 29 28 30 28 29 29 28 29 30 29 29 28 25 22 20 15 10 11 8 9 14 18 18 20 19 21 23
25 27 27 27 31 30 27 31 32 29 28 29 28 28 28 24 23 22 20 15 12 10 6 9 10 18 22 21 20 21 22 23
23 26 28 30 32 32 30 30 30 30 30 29 29 28 24 22 21 14 11 10 9 9 6 12 18 24 20 20 20 22 22 24
2 10 24 30 33 31 28 25 27 27 27 28 26 24 21 19 18 18 17 14 7 15 23 23 21 19 20 21 22 24 23 23
5 4 3 4 14 21 26 25 25 25 25 23 24 23 22 20 18 11 3 13 22 21 15 19 20 21 21 20 22 23 24 22
7 4 1 3 6 13 17 20 22 21 22 25 25 26 23 14 2 14 19 15 12 12 16 22 22 20 22 22 23 24 22 21

GFSFLT1_850_spd_048.txt.gz
Wind_Speed
28 26 28 29 29 28 25 21 21 24 25 26 26 26 24 20 18 15 14 15 17 17 17 16 15 14 10 9 11 13 11 9
26 27 27 28 27 28 27 26 23 25 29 30 30 28 25 25 19 18 18 15 16 18 17 16 16 12 10 12 12 9 8 11
28 28 30 31 31 30 29 27 26 27 28 29 29 27 26 24 21 21 19 16 16 16 16 16 14 13 11 10 8 8 10 12
30 30 31 33 35 34 32 31 30 30 30 30 31 29 31 28 24 25 22 18 17 16 17 16 15 12 10 9 9 11 11 14
33 34 34 36 35 33 31 29 30 31 32 33 34 32 34 29 23 23 19 19 18 19 20 17 14 11 11 9 10 12 14 17
36 38 38 38 35 34 31 31 34 34 35 35 35 33 33 27 23 20 20 22 22 21 19 16 14 13 12 12 10 13 20 19
40 39 38 37 38 37 36 35 35 35 37 37 36 33 32 29 25 22 22 23 23 22 20 19 18 18 18 18 16 26 16 17
43 42 42 41 40 40 39 38 38 37 36 38 38 37 33 27 24 21 22 24 25 24 22 22 24 23 24 22 22 18 22 24
44 44 43 42 42 41 38 38 39 37 38 35 39 41 35 29 26 22 20 23 27 27 26 30 29 25 28 22 25 18 15 17
41 43 43 42 42 41 37 34 40 40 39 37 39 36 36 30 25 24 24 27 30 30 28 33 30 27 22 21 13 12 13 14
30 36 40 40 39 39 34 34 31 34 39 39 40 34 35 28 25 26 28 28 33 35 29 29 24 17 13 10 9 11 14 16
17 22 26 30 32 32 30 34 33 31 31 34 33 31 28 25 24 26 27 28 32 30 25 18 16 11 8 8 10 15 17 15
11 12 13 15 19 25 29 33 32 28 28 25 25 25 25 25 28 26 27 27 26 26 17 14 10 10 8 8 19 13 15 15
14 16 18 20 22 25 26 21 18 19 22 24 24 26 26 23 22 22 20 22 19 13 11 14 16 5 13 19 14 18 15 16
16 17 18 19 22 23 20 19 19 20 21 24 27 25 21 20 20 20 19 18 14 19 16 8 13 20 17 16 19 16 17 20
14 15 14 17 18 19 20 21 21 22 24 23 21 21 21 20 19 18 19 20 17 12 16 15 23 21 16 15 16 20 21 22
4 1 5 8 12 15 18 18 17 17 17 16 18 20 19 20 19 19 18 15 14 15 21 26 23 15 14 17 21 23 22 24
10 10 7 5 4 5 8 10 12 14 15 16 17 18 19 16 14 14 11 7 11 23 23 17 14 16 19 22 23 25 25 25
12 10 9 6 3 2 4 7 10 12 14 14 16 17 17 16 9 3 14 20 26 15 11 13 19 21 21 23 25 27 28 28

GFSFLT1_850_spd_051.txt.gz
Wind_Speed
24 26 34 39 34 29 26 24 22 21 22 23 24 25 25 23 21 20 17 16 15 12 14 15 16 17 16 14 11 9 9 9
26 26 30 34 35 29 28 26 24 25 27 27 28 29 28 27 23 21 18 16 15 15 17 18 19 19 16 15 11 9 8 9
29 29 30 32 32 32 30 27 26 25 26 26 28 28 27 26 25 25 23 18 18 18 19 20 21 20 17 14 11 10 7 6
30 33 33 32 34 34 31 30 28 26 26 26 28 28 28 31 28 26 21 20 20 18 19 20 20 18 17 14 13 10 7 7
28 31 33 35 35 33 32 31 30 29 29 28 29 31 32 31 28 24 20 21 21 20 21 21 20 19 17 17 15 12 9 11
32 33 34 33 31 31 30 31 31 31 31 31 31 32 33 31 28 22 21 22 23 24 24 23 21 20 21 18 17 14 17 15
34 34 32 32 31 32 31 31 32 32 31 31 32 31 32 32 31 27 24 25 26 25 25 24 23 23 22 22 20 18 15 19
38 36 36 35 34 33 34 33 32 32 31 30 30 30 35 35 36 28 26 27 27 26 27 27 27 24 23 27 21 15 20 19
42 41 39 37 35 34 34 34 34 32 32 31 30 27 34 35 37 29 25 27 23 25 29 28 24 22 24 22 16 19 15 12
33 38 40 39 36 34 34 33 32 32 31 31 31 30 32 33 35 34 28 29 28 27 27 30 27 27 21 18 15 12 8 8
16 23 28 31 33 31 31 31 28 28 25 25 32 33 32 34 33 31 29 29 27 26 33 33 26 16 14 12 7 5 9 17
5 8 11 15 20 22 23 26 25 28 28 26 26 28 31 33 30 27 27 26 30 33 31 28 23 16 14 8 9 18 16 14
4 6 5 6 9 12 15 18 20 22 23 24 24 23 20 23 25 20 24 24 26 27 28 22 20 18 19 18 21 14 12 14
9 9 9 10 11 14 14 14 15 16 18 20 20 21 21 21 20 17 15 16 20 25 22 20 17 17 17 18 17 13 15 15
8 7 8 10 10 11 13 15 15 17 18 19 20 19 17 13 12 11 14 16 17 19 22 21 19 17 18 20 19 17 18 18
6 6 7 7 7 8 9 11 14 15 14 14 11 10 9 9 10 12 13 16 19 19 17 15 16 18 23 20 17 19 18 21
11 9 8 7 5 3 3 4 4 5 6 7 6 6 8 10 11 13 15 18 19 15 12 15 20 26 19 13 15 19 24 27
18 17 14 12 9 6 4 3 3 3 3 4 6 7 9 10 11 12 12 7 7 10 16 20 23 15 14 17 21 26 27 28
17 15 13 11 9 8 7 6 6 6 8 9 10 11 12 12 10 8 3 6 13 19 13 10 14 17 19 21 23 27 30 32

GFSFLT1_850_spd_054.txt.gz
Wind_Speed
19 23 24 25 28 30 26 24 22 21 18 20 19 19 21 24 25 22 20 22 21 20 20 19 17 17 18 17 15 12 6 4
19 24 27 28 29 30 27 25 23 20 19 19 20 21 21 24 27 25 22 23 23 21 20 18 20 19 21 18 16 12 8 6
22 24 29 31 31 30 27 26 23 22 19 19 19 19 21 25 29 27 27 27 24 21 20 18 19 22 22 20 16 11 8 9
26 27 29 31 33 32 29 26 24 23 21 19 19 17 19 27 30 30 31 27 25 22 21 21 23 23 23 21 18 14 9 9
25 28 30 32 33 31 30 28 26 24 24 22 22 21 21 24 30 31 27 25 23 24 23 25 25 24 24 22 21 16 13 8
29 31 32 31 30 30 29 28 27 26 25 25 23 23 21 20 26 26 25 24 25 26 26 26 26 26 25 24 23 21 22 15
29 29 27 28 28 29 29 29 29 28 28 29 29 27 26 23 26 26 26 25 25 27 28 26 25 25 26 26 25 25 24 18
28 28 29 29 30 30 30 31 30 29 29 29 29 30 30 29 25 27 28 29 28 28 27 26 28 28 30 25 26 26 22 16
31 29 30 28 29 29 31 31 30 29 29 29 29 27 28 29 29 27 30 31 29 24 26 27 30 29 26 29 25 22 19 17
23 29 27 25 25 26 27 26 25 25 29 27 27 26 27 28 27 26 25 26 29 24 29 27 24 32 34 31 24 18 14 8
11 17 23 23 22 20 21 22 22 21 22 23 23 22 21 23 24 24 22 23 24 26 26 22 27 35 32 26 23 21 16 15
4 8 11 14 15 16 16 16 16 16 16 16 17 16 15 18 21 21 18 20 20 22 19 30 32 32 27 18 19 18 18 15
5 7 9 10 11 11 12 11 12 12 12 12 13 16 16 17 16 18 18 17 18 20 27 29 28 25 23 24 16 16 16 15
7 8 8 10 10 10 10 9 9 8 9 11 14 15 17 17 16 14 13 14 15 16 19 24 24 24 20 13 15 17 16 18
7 7 7 7 8 7 7 10 11 11 12 13 13 14 13 10 9 9 10 11 13 16 18 20 23 19 13 17 16 17 19 19
9 10 10 9 8 9 10 9 9 10 10 10 7 5 4 5 6 8 10 11 11 14 18 17 10 14 16 19 20 25 19 21
8 11 11 11 10 9 8 7 6 6 5 6 5 5 5 6 8 7 9 10 12 10 10 10 14 18 21 21 20 18 20 20
12 13 13 14 13 12 11 10 9 8 7 9 8 8 8 9 8 8 8 7 8 10 11 15 18 19 18 15 17 23 23 23
14 15 16 16 15 14 14 13 12 11 12 11 11 11 11 9 7 6 4 5 7 11 13 10 9 11 17 18 21 26 26 26

GFSFLT1_850_spd_057.txt.gz
Wind_Speed
16 18 21 22 27 30 29 28 33 18 16 16 15 16 16 17 17 18 22 19 18 19 15 15 20 18 17 17 16 14 9 8
19 22 22 24 25 28 29 30 28 22 19 20 20 17 16 17 18 21 24 22 21 21 19 19 24 17 18 18 19 17 10 9
22 25 26 27 28 29 29 27 24 22 19 18 18 17 17 19 20 19 22 25 19 19 20 20 22 19 21 22 21 18 12 11
24 26 28 28 30 30 29 26 25 23 20 19 18 18 19 20 21 21 28 29 26 22 24 24 23 20 21 23 24 21 14 12
27 28 30 31 31 30 29 26 25 23 22 20 20 20 20 20 20 22 28 30 26 25 30 28 22 20 27 23 23 20 17 15
30 32 32 32 31 33 30 27 26 24 23 23 21 23 20 18 18 21 26 27 28 28 27 29 26 32 27 25 23 22 16 17
29 29 29 30 30 31 31 30 29 27 27 26 27 24 23 20 19 25 24 25 24 23 23 28 32 30 27 25 22 21 25 22
29 30 31 31 32 32 32 30 30 30 31 30 29 27 25 23 23 25 19 19 22 23 24 23 29 28 26 21 25 25 24 24
30 31 31 31 32 32 31 30 29 28 29 30 25 25 28 29 26 23 23 23 24 28 25 23 23 26 27 29 23 27 29 23
27 30 31 30 29 30 31 28 27 27 29 25 28 27 31 28 24 26 28 23 27 25 21 22 27 30 30 21 30 29 24 23
14 25 30 28 27 26 26 26 25 26 27 25 27 27 32 26 25 28 27 24 23 20 19 22 21 21 25 27 29 29 25 20
8 14 19 26 24 23 23 22 23 23 22 25 24 27 24 17 16 20 20 20 18 18 21 20 18 26 30 28 24 23 18 13
6 9 13 17 21 22 21 20 20 19 18 19 19 16 18 19 18 19 19 19 17 16 17 20 23 25 24 21 22 18 12 15
8 10 12 14 16 17 17 16 16 16 15 20 21 20 20 17 15 15 15 15 15 16 17 18 18 19 20 17 12 11 12 14
11 12 13 14 15 16 16 18 19 18 23 23 19 17 14 10 9 10 10 12 13 11 13 14 15 14 13 10 13 14 15 16
13 13 13 14 15 16 15 19 21 20 17 13 12 9 7 7 7 7 7 9 10 10 12 10 10 8 9 13 16 18 18 19
13 14 14 15 15 16 14 13 14 13 12 10 10 8 9 10 9 8 7 6 5 4 5 5 6 11 14 15 17 18 18 17
13 15 15 15 15 15 16 13 12 12 12 14 14 14 13 12 11 10 8 5 1 3 6 8 10 13 14 12 12 17 19 20
16 17 17 17 17 18 18 17 16 16 17 16 15 14 14 12 11 8 4 2 2 4 5 4 5 8 14 18 20 21 22 22

GFSFLT1_850_spd_060.txt.gz
Wind_Speed
17 16 16 15 23 21 25 28 32 35 38 30 22 22 21 22 21 20 21 23 22 21 20 19 16 17 18 18 17 17 17 12
19 21 20 21 24 29 33 30 32 40 33 22 21 21 23 26 22 22 24 22 21 20 21 19 20 23 22 19 21 20 20 17
22 25 28 25 30 26 27 36 38 30 25 20 20 21 23 21 24 24 25 24 23 23 23 19 21 24 22 21 22 22 22 21
28 29 31 30 28 30 34 38 28 24 26 21 22 20 19 22 27 28 29 28 26 27 25 20 19 20 19 25 29 26 25 22
32 34 35 35 35 31 31 31 29 25 26 28 25 27 28 26 24 22 25 27 29 30 26 25 26 34 31 33 33 29 28 25
32 36 38 37 36 37 33 32 30 32 26 28 28 28 25 23 26 25 28 32 30 29 31 30 27 29 32 30 35 29 29 25
34 35 35 38 37 37 37 37 36 35 33 28 26 25 26 24 25 27 32 32 25 25 29 32 31 27 30 33 31 30 23 25
36 38 39 39 41 41 41 41 39 35 34 31 30 29 24 27 24 25 26 32 29 27 25 26 26 25 27 33 32 21 23 28
37 38 39 38 40 42 42 42 41 38 36 32 29 26 30 31 26 31 28 29 26 23 18 20 20 25 26 28 29 25 24 27
33 37 39 40 39 41 42 39 37 35 36 35 35 35 27 34 34 28 27 24 25 23 21 23 22 28 28 26 22 19 25 32
19 32 37 39 40 39 40 37 35 34 33 34 39 30 37 32 31 27 24 26 28 25 21 22 19 24 25 22 22 27 27 26
5 12 25 34 35 36 37 37 32 32 31 32 36 33 32 31 24 26 24 26 24 23 19 18 19 20 19 21 27 26 23 18
8 9 12 26 32 34 35 35 31 31 29 29 28 30 29 26 24 22 18 18 18 19 17 18 18 20 24 25 23 18 14 12
9 9 10 14 16 20 26 25 24 22 24 25 26 26 21 20 20 18 17 16 18 19 18 17 20 20 18 18 16 12 11 12
12 11 11 12 13 15 15 15 18 23 23 25 22 21 18 20 19 19 16 17 17 14 14 14 13 12 12 11 10 9 13 15
14 17 16 17 18 23 27 27 28 27 25 24 19 16 16 15 13 12 11 10 10 10 8 7 8 8 7 6 9 11 14 16
12 19 24 21 23 25 27 30 27 24 20 15 14 14 13 13 12 11 10 10 8 6 5 6 6 6 7 8 9 13 15 15
10 13 23 26 17 20 20 24 22 19 17 14 14 15 14 13 13 11 11 11 8 6 5 4 4 4 7 6 6 10 13 16
15 14 20 19 21 15 15 15 18 17 18 20 19 18 17 17 16 16 12 8 6 5 4 3 4 0 5 10 12 14 17 19

GFSFLT1_850_spd_063.txt.gz
Wind_Speed
14 14 18 20 24 25 29 30 32 34 33 30 34 33 42 37 23 24 16 15 18 19 18 18 20 20 20 18 17 14 15 17
18 16 20 23 24 27 29 30 30 32 37 30 34 36 37 34 23 22 19 20 21 23 23 21 21 22 21 19 17 19 22 21
24 19 19 26 24 25 28 29 33 36 33 35 35 30 31 35 26 23 26 24 22 23 22 22 22 25 24 22 21 22 23 24
33 30 24 25 31 32 33 35 40 42 34 29 26 23 25 27 30 30 28 28 27 25 25 23 25 26 29 24 23 22 22 22
32 35 35 32 34 35 38 44 46 37 28 27 27 27 28 29 30 28 29 31 29 26 28 28 26 28 27 25 27 26 24 24
41 39 38 35 33 35 40 43 40 32 30 30 28 27 26 24 25 26 27 29 31 30 31 29 31 32 28 29 29 28 31 26
40 40 38 37 36 35 38 44 38 32 32 32 33 36 32 31 31 30 29 28 26 28 29 31 34 36 32 29 28 30 30 31
44 43 43 40 38 40 40 40 42 38 35 33 36 36 34 33 34 30 31 32 31 28 28 30 29 34 33 29 27 28 31 30
47 46 44 43 44 42 43 43 41 41 41 37 36 37 38 35 36 34 32 33 32 30 30 28 21 21 19 20 26 29 31 22
48 48 46 43 43 47 49 46 45 43 44 45 44 42 37 42 40 35 35 31 27 29 27 22 15 13 14 19 26 28 19 16
45 48 47 45 43 43 45 44 44 45 47 45 45 43 41 39 35 32 25 25 29 32 25 19 17 17 20 20 23 20 18 21
27 42 49 47 48 48 45 47 46 45 43 43 46 45 43 43 35 24 28 25 24 25 22 19 19 19 19 22 18 19 21 24
9 10 38 45 51 51 50 46 46 46 44 42 44 43 37 38 15 25 28 23 24 18 18 19 18 19 20 18 19 21 22 17
12 10 7 23 43 44 45 42 32 31 35 31 27 26 26 33 27 23 15 19 15 17 18 18 17 20 19 17 18 16 14 12
17 12 10 7 9 21 31 25 27 32 42 28 24 23 21 21 21 17 16 15 14 15 15 16 17 17 15 15 14 12 11 10
23 19 14 14 11 13 19 22 27 30 26 21 19 23 21 19 17 15 14 14 13 13 14 16 15 13 13 12 12 11 11 11
27 26 26 22 19 18 19 22 23 20 18 22 23 20 18 15 15 15 15 15 14 14 14 13 12 11 11 11 11 10 10 11
22 31 31 29 25 25 21 19 18 18 20 21 21 20 17 16 16 17 17 17 16 14 13 12 12 11 11 10 9 8 7 9
21 30 33 33 29 27 26 23 20 15 17 19 19 17 19 19 20 20 20 19 16 13 11 11 13 13 11 8 7 8 9 11

GFSFLT1_850_spd_066.txt.gz
Wind_Speed
10 10 14 18 17 17 27 34 31 35 38 44 36 36 39 39 35 33 34 21 19 18 16 14 14 15 16 17 16 14 13 14
13 12 15 18 20 22 24 34 31 37 37 41 42 42 38 35 38 41 23 18 20 19 19 17 18 21 19 18 19 19 19 19
19 17 20 22 25 29 31 33 31 35 35 41 43 43 37 41 39 32 24 23 23 22 21 21 21 23 22 22 23 22 21 22
28 24 25 26 28 33 35 35 36 39 42 38 36 40 35 44 45 34 27 27 24 21 21 21 24 27 25 23 24 23 23 23
33 29 29 31 30 32 36 37 38 39 39 37 39 41 42 48 46 36 30 30 28 26 24 24 27 26 25 25 24 25 26 26
42 37 32 30 32 34 35 36 37 40 41 39 41 40 40 42 42 37 35 33 30 30 29 28 29 29 31 29 28 29 27 27
44 41 35 36 34 34 37 39 42 45 43 41 39 36 36 37 39 37 34 33 33 34 33 31 30 30 31 32 31 29 28 27
47 45 44 40 41 41 40 43 47 47 43 40 39 37 35 35 34 35 35 35 34 33 32 33 32 28 33 33 34 32 30 29
47 50 46 45 45 46 46 49 50 48 44 42 40 38 38 39 37 36 36 35 31 26 26 29 27 28 35 31 32 32 29 28
51 50 48 47 49 51 52 51 53 50 46 42 43 43 44 42 40 41 41 38 33 30 28 31 31 31 19 21 20 21 22 24
45 50 51 50 49 52 53 53 53 51 49 47 45 42 43 42 43 44 42 41 33 29 31 31 29 28 19 18 19 17 24 25
41 42 46 51 52 48 53 54 54 52 50 48 47 44 42 42 41 46 36 34 24 27 33 32 34 25 20 20 22 20 22 22
30 39 46 47 51 51 52 49 48 44 39 37 39 39 39 41 44 34 27 24 37 35 32 35 31 22 23 22 23 23 20 23
22 24 35 43 47 49 47 46 44 40 38 37 37 38 39 36 39 39 38 28 35 35 34 27 27 24 23 23 22 19 20 22
20 18 17 18 34 40 44 44 43 43 32 31 35 36 40 44 47 44 38 34 29 26 27 24 25 23 23 24 23 20 20 19
25 21 18 17 18 23 39 40 39 38 37 37 35 39 36 44 47 41 34 26 27 26 26 25 24 23 23 22 21 19 18 16
30 26 22 19 16 18 32 41 39 40 41 36 35 33 29 36 32 34 33 28 27 25 25 23 23 21 20 18 17 17 17 16
35 31 28 26 23 21 21 31 34 36 37 34 33 33 34 32 30 29 28 27 25 24 22 20 20 20 19 20 20 18 18 18
35 35 33 33 30 27 25 27 28 28 27 27 31 31 31 31 29 28 26 24 23 22 22 22 22 22 21 21 20 18 16 15

GFSFLT1_850_spd_069.txt.gz
Wind_Speed
10 6 6 11 11 13 17 24 28 33 37 41 34 33 34 35 35 33 31 31 24 20 18 15 14 13 13 13 10 11 12 9
13 9 8 14 14 16 20 26 30 30 35 39 33 37 36 36 34 32 27 25 21 18 18 16 16 15 13 12 13 14 15 13
17 14 12 17 19 17 19 25 28 32 34 37 38 38 37 34 36 29 25 26 28 20 17 18 15 15 17 17 19 19 18 19
22 20 14 17 21 22 22 25 29 31 34 39 34 34 36 38 39 33 33 33 27 22 21 19 20 22 22 21 22 23 22 23
26 24 21 20 21 21 25 28 32 32 36 36 39 41 39 39 38 41 38 37 27 23 22 21 22 22 23 24 25 26 25 26
33 30 24 21 23 24 27 31 32 33 35 34 37 41 45 43 39 42 41 39 34 29 26 26 26 27 26 27 28 28 27 28
35 32 27 24 26 26 29 33 34 35 35 38 40 41 42 46 46 43 46 46 38 36 32 31 29 31 30 30 30 32 32 31
38 38 35 30 31 31 30 34 36 38 39 41 42 41 41 41 41 45 46 44 41 39 35 35 34 33 32 31 34 35 35 34
41 41 40 37 34 35 34 35 38 40 42 44 43 40 39 37 37 41 44 43 41 36 36 38 36 33 31 30 36 34 33 30
43 43 43 42 40 40 40 38 37 41 43 45 45 43 42 41 40 40 41 41 40 37 37 38 40 41 38 32 35 36 30 30
42 44 44 45 45 43 41 41 41 42 45 45 45 43 42 41 38 41 40 36 36 38 43 41 40 38 37 37 35 24 21 22
43 45 44 46 44 46 46 44 44 44 46 47 46 43 42 42 42 43 41 39 35 35 39 34 43 37 33 30 27 23 23 20
40 42 44 43 43 44 48 49 48 46 45 47 45 43 44 44 47 46 41 37 34 24 29 34 36 36 34 31 31 28 27 22
31 36 40 42 41 41 43 46 49 49 49 50 50 40 36 44 54 46 41 40 37 26 29 36 34 33 28 29 33 27 24 24
28 27 31 32 35 38 41 42 45 47 48 52 53 50 51 47 47 39 41 41 38 35 32 34 36 35 30 31 28 26 25 23
26 30 28 28 30 32 36 39 41 42 44 46 50 51 51 42 42 43 41 38 40 39 37 33 33 31 27 28 27 27 26 24
27 31 29 24 22 24 28 34 37 39 42 43 44 46 42 40 40 40 46 50 48 42 39 30 28 28 27 27 27 27 25 26
33 34 35 29 27 22 21 26 31 37 41 42 42 43 44 40 43 43 43 41 35 36 31 29 28 27 27 27 25 25 24 25
32 40 37 35 30 27 26 27 31 35 37 39 40 42 43 37 36 33 33 34 34 32 31 29 27 25 26 25 25 24 24 21

GFSFLT1_850_spd_072.txt.gz
Wind_Speed
15 10 5 9 8 9 9 14 22 23 32 34 35 34 35 32 43 36 36 34 29 24 19 20 18 15 15 12 11 10 8 8
15 11 8 11 11 10 12 13 17 26 33 33 31 33 36 38 40 39 37 32 30 24 21 18 17 15 13 12 12 11 10 11
19 14 11 10 14 14 14 13 17 26 35 36 32 30 29 34 34 35 34 32 26 24 23 21 18 15 15 15 15 13 12 13
22 19 15 13 14 17 18 18 20 22 31 35 26 28 31 32 34 38 35 31 34 35 26 22 18 16 16 15 15 17 17 16
22 21 18 15 14 14 20 23 25 25 28 33 35 40 36 37 34 35 33 33 31 31 29 24 19 18 20 19 17 21 20 21
27 25 19 15 16 15 19 21 24 27 32 35 35 38 40 37 38 39 38 33 28 26 25 26 25 22 20 20 21 23 23 25
26 24 21 20 18 20 21 24 27 29 31 35 38 37 41 45 45 44 46 40 36 35 35 30 26 23 27 25 24 26 27 29
29 29 28 26 25 25 25 27 31 32 32 34 38 40 43 43 48 46 45 45 44 42 39 38 35 29 28 29 29 31 32 33
32 31 30 29 28 29 30 32 32 34 34 35 37 37 39 41 47 46 46 43 41 44 43 40 37 33 33 34 35 36 35 36
30 32 31 31 32 33 34 33 34 35 37 38 39 40 40 42 41 42 46 47 45 45 44 43 39 35 38 36 34 34 36 37
23 31 33 32 33 32 33 34 33 34 36 40 41 42 42 42 42 42 40 37 38 39 40 40 38 38 38 38 33 29 35 41
21 29 33 32 33 34 36 35 34 36 36 37 40 41 41 40 40 39 39 38 37 35 35 36 36 37 40 40 34 36 33 31
23 25 28 31 33 34 35 37 39 36 37 37 37 37 39 37 40 38 37 39 37 34 35 38 41 40 42 34 38 35 32 29
20 22 26 28 32 34 34 36 39 41 41 41 39 40 39 39 46 41 44 41 37 33 35 34 34 26 20 28 33 32 30 34
14 18 22 25 28 32 30 32 34 37 43 43 43 45 42 46 42 42 45 43 40 38 42 42 40 31 30 35 32 32 30 33
18 22 23 23 26 29 28 29 29 31 37 43 46 44 43 46 47 47 46 40 33 42 43 39 39 35 34 32 30 32 31 33
19 25 27 28 27 27 27 25 25 27 30 33 37 42 45 46 48 48 49 48 43 38 41 42 38 34 33 30 29 31 27 29
28 27 27 28 32 29 28 26 27 26 26 29 31 32 36 42 45 46 46 44 39 41 39 40 40 37 32 25 24 27 27 27
34 33 31 29 35 34 29 30 29 27 28 30 29 31 34 36 36 37 39 42 41 42 38 37 35 28 26 28 29 28 25 25

GFSFLT1_850_spd_075.txt.gz
Wind_Speed
16 14 11 9 12 14 14 13 18 21 21 27 31 28 39 40 40 39 39 36 31 31 29 26 24 21 21 20 16 14 12 11
17 15 12 12 13 14 14 14 17 20 25 32 33 34 27 43 36 38 37 35 25 30 29 23 18 19 18 17 17 16 14 13
21 19 15 15 15 17 18 16 17 23 28 33 36 37 32 42 37 38 33 34 31 34 24 22 22 21 22 19 17 15 14 14
25 23 19 16 19 19 20 20 20 24 29 33 32 34 35 35 36 42 38 36 34 31 28 27 24 23 20 19 16 15 16 16
25 25 21 19 18 18 23 22 22 24 29 34 33 34 37 39 38 45 41 39 36 36 32 27 24 27 21 20 16 16 18 21
31 28 22 18 18 20 26 26 25 26 30 35 32 29 30 32 40 41 40 43 40 38 35 30 29 28 26 21 20 18 17 20
29 26 24 21 21 22 22 29 30 30 29 35 37 34 33 38 41 41 44 41 38 39 38 37 33 33 28 24 23 20 20 19
31 32 31 28 25 25 25 28 31 31 31 32 33 36 38 39 41 42 44 47 44 41 38 38 35 30 26 24 24 21 24 24
31 35 33 31 28 28 28 29 31 32 32 34 35 37 40 43 43 44 44 46 44 41 37 34 32 32 33 35 33 30 30 29
28 34 33 33 32 31 31 30 30 32 33 34 37 41 42 45 45 45 45 47 48 45 44 41 40 40 38 37 37 36 32 28
20 29 32 32 34 32 31 31 30 30 33 34 36 39 42 43 45 49 51 52 52 48 47 46 44 44 44 43 41 41 36 34
15 21 27 29 32 34 35 34 33 34 34 36 37 38 40 42 43 44 46 47 49 49 49 50 46 41 40 39 41 41 40 33
11 15 19 24 29 32 35 37 38 36 35 36 39 40 40 39 38 37 39 40 40 41 39 35 34 35 36 46 44 47 48 37
8 14 18 21 24 28 32 35 37 39 40 37 39 42 43 44 44 44 43 41 40 40 36 36 34 38 39 38 33 33 36 29
10 12 17 19 20 23 26 27 31 34 39 43 42 41 41 42 42 47 47 43 41 39 39 38 39 42 39 34 30 25 24 25
16 15 17 21 21 22 23 24 27 29 32 38 42 42 41 42 41 43 45 42 46 43 39 39 41 44 38 36 35 28 29 35
23 24 21 23 25 25 25 23 24 25 29 31 33 36 40 42 41 42 42 42 42 40 40 38 32 43 46 37 30 33 33 34
27 24 25 20 25 27 27 26 25 25 25 26 28 30 34 37 39 40 42 41 40 42 40 39 35 35 37 33 34 32 34 34
28 28 26 27 27 29 31 31 28 28 28 27 27 28 30 32 35 36 38 38 39 40 37 34 31 33 37 36 36 36 34 29

GFSFLT1_850_spd_078.txt.gz
Wind_Speed
16 14 12 10 10 10 14 16 14 11 14 15 19 31 41 46 43 40 38 33 33 31 32 31 32 29 22 20 18 18 13 13
16 15 14 12 11 12 17 15 17 15 16 19 23 35 44 45 41 40 39 42 39 41 38 34 29 25 20 17 17 15 13 15
18 19 17 15 13 14 18 16 15 18 19 22 25 34 43 38 39 41 42 44 41 39 34 33 27 24 25 18 20 16 14 16
21 22 20 16 17 17 20 19 18 20 22 22 30 32 39 37 38 39 40 41 40 35 31 30 29 25 20 20 20 20 18 17
23 23 22 20 18 18 22 23 21 22 25 29 34 36 35 47 41 43 44 40 38 33 31 28 28 27 25 23 22 20 18 16
26 26 22 20 19 21 23 24 26 25 27 31 29 32 34 54 46 43 44 43 39 35 33 29 31 32 28 25 24 23 23 19
24 23 23 22 21 21 23 24 29 28 29 30 33 34 37 43 45 51 48 43 42 44 40 39 32 32 28 28 24 23 23 23
26 29 29 27 27 25 26 28 29 31 28 31 33 32 31 38 42 42 56 46 48 47 42 45 39 35 31 33 28 27 27 25
27 29 29 29 30 29 29 29 29 30 32 32 32 34 33 32 35 41 49 56 52 48 48 41 43 38 37 37 33 29 24 25
24 29 31 29 30 32 31 31 29 30 32 30 31 34 36 35 34 37 46 45 48 48 43 43 44 40 37 37 33 29 23 24
21 26 30 29 28 29 31 32 31 30 31 31 33 33 36 36 37 42 44 46 45 47 44 43 42 42 41 36 32 30 29 29
16 23 26 28 27 29 31 33 33 32 32 33 34 36 38 38 44 43 44 42 41 40 40 39 39 38 36 35 34 33 34 41
12 18 23 28 30 30 33 33 34 35 34 35 37 38 37 42 48 51 52 51 46 43 42 41 41 41 40 40 40 48 42 43
8 15 20 25 29 31 33 36 38 35 34 36 37 41 40 42 45 44 41 41 43 42 41 45 46 45 42 43 52 43 39 38
7 13 19 22 26 29 31 33 37 37 37 37 38 42 44 43 42 41 41 40 40 40 41 44 43 42 39 43 40 38 37 38
14 14 17 20 24 25 28 30 33 36 39 40 44 41 39 39 39 41 42 41 39 39 41 42 41 38 40 42 41 39 39 39
18 18 17 19 22 25 27 29 31 32 36 39 38 38 40 41 40 39 39 42 41 37 39 39 40 40 41 40 44 43 43 37
18 17 18 20 23 25 29 30 28 30 31 32 33 34 36 37 37 37 37 37 35 37 39 41 39 39 45 39 39 39 43 43
20 16 14 18 22 24 23 25 29 31 31 31 32 32 32 30 30 33 33 33 35 34 33 32 33 40 40 35 36 39 37 39

GFSFLT1_850_spd_081.txt.gz
Wind_Speed
17 16 14 12 11 12 13 14 15 13 16 15 16 26 32 33 45 47 46 48 41 38 34 28 26 21 19 16 18 18 16 14
18 18 16 14 13 12 14 16 17 16 15 16 19 34 38 39 39 40 39 38 41 38 36 28 26 28 23 21 23 22 17 15
19 19 18 16 14 14 15 16 17 15 17 19 21 37 40 46 46 45 43 39 37 33 33 36 36 32 27 28 24 20 15 17
21 21 20 17 16 16 16 20 19 18 16 20 26 32 45 46 44 43 37 38 42 36 38 42 36 29 29 25 24 20 16 16
22 23 23 21 18 17 18 20 21 23 24 25 30 37 50 47 45 46 42 40 41 44 39 42 39 31 27 24 21 20 18 15
22 25 23 21 19 20 19 23 22 23 28 26 29 35 45 47 45 45 47 46 43 40 39 35 37 36 30 30 22 21 22 18
21 23 22 22 20 21 20 23 25 26 31 32 29 35 42 45 46 44 46 44 47 46 40 34 35 36 31 33 33 23 22 23
21 25 27 25 25 23 22 24 26 27 32 35 31 32 41 47 47 47 48 50 48 47 43 40 38 34 34 35 28 26 26 24
22 26 27 27 27 25 24 25 25 28 30 35 34 34 34 40 51 53 53 56 55 50 47 42 37 36 39 39 33 29 29 25
21 25 28 28 28 28 26 25 25 28 31 32 35 35 33 35 38 57 53 55 55 53 50 53 52 49 46 44 38 35 36 32
19 24 28 29 27 27 26 26 26 27 28 31 32 33 35 34 33 47 56 57 55 51 57 55 55 48 46 46 43 38 42 40
15 21 25 28 28 28 28 28 28 29 29 29 30 33 36 34 34 35 43 44 50 48 48 57 54 50 49 48 50 44 40 37
6 15 22 27 30 29 30 29 31 33 31 32 34 32 32 35 40 41 43 43 43 46 44 43 49 51 50 47 48 42 38 39
2 10 19 26 29 30 31 31 33 32 32 34 36 38 39 39 40 43 41 44 43 43 44 44 46 47 44 43 43 42 42 42
5 8 14 21 27 30 30 31 32 32 34 36 37 40 42 41 40 39 42 41 43 42 43 43 44 43 43 44 44 44 46 46
17 10 13 17 23 27 30 31 32 33 33 36 40 41 39 36 39 42 42 43 43 45 45 45 45 44 46 45 45 46 45 45
17 18 17 18 20 25 27 29 33 33 38 42 38 37 40 40 41 41 42 44 46 44 46 47 47 48 50 52 50 45 46 48
16 16 17 16 19 21 25 28 28 32 35 36 36 39 41 42 40 39 42 44 42 45 45 44 44 46 49 49 48 47 48 48
21 18 17 12 13 18 23 25 28 31 32 33 34 38 42 40 39 42 42 42 43 43 44 43 42 42 41 41 41 43 46 49

GFSFLT1_850_spd_084.txt.gz
Wind_Speed
18 16 16 16 14 14 16 14 14 13 12 10 8 10 10 19 33 41 52 52 49 45 43 36 32 32 30 29 27 24 22 18
23 21 18 16 16 17 19 18 17 18 16 14 12 14 21 28 36 35 37 38 40 43 43 33 28 29 32 30 27 24 23 21
25 24 21 20 19 18 20 17 17 20 16 16 16 17 29 33 33 43 44 43 37 28 40 31 29 30 30 27 25 25 25 22
29 27 25 23 22 21 18 18 19 21 18 18 19 27 32 34 38 41 39 33 36 41 40 33 31 33 33 32 30 27 27 27
29 30 27 26 24 22 20 23 22 22 23 22 27 34 37 37 39 37 37 35 38 39 39 36 30 33 33 31 29 29 25 28
24 30 29 26 24 24 23 22 25 25 25 25 25 31 36 39 41 41 39 38 36 32 36 35 39 39 37 32 31 28 27 25
22 28 27 26 26 25 26 26 28 29 28 26 26 31 41 44 45 45 43 38 39 43 36 38 43 41 34 34 32 30 29 23
21 29 30 29 30 28 26 27 29 31 32 31 27 30 37 45 47 47 48 46 46 49 47 43 38 43 42 34 33 30 27 23
19 29 30 30 32 31 28 25 30 32 33 33 30 30 34 40 47 48 47 50 50 48 48 46 44 40 41 39 33 30 30 35
20 25 32 31 32 33 30 28 29 29 34 37 36 34 34 39 44 48 48 47 47 49 49 46 45 42 41 42 39 37 36 34
24 23 33 32 31 31 28 29 32 29 35 37 41 37 35 34 38 47 50 49 50 51 52 51 49 49 46 47 43 39 37 40
3 17 27 30 29 31 31 29 29 32 29 34 40 43 41 38 38 41 49 52 53 54 54 54 52 52 49 48 45 44 45 46
2 11 21 28 29 30 32 32 33 33 32 30 32 39 42 43 40 41 42 46 57 57 56 58 56 56 57 57 57 54 51 45
1 6 10 22 28 30 30 32 33 35 33 35 33 32 36 40 43 42 41 41 48 54 55 52 57 61 62 63 61 55 52 50
20 4 11 14 20 27 29 31 33 32 34 35 38 37 37 37 39 41 42 39 41 47 52 55 54 52 56 53 51 49 50 51
15 20 16 10 18 24 28 30 32 34 34 39 39 40 40 39 38 39 39 46 46 47 48 49 47 48 49 48 47 49 52 49
24 20 14 20 20 22 26 30 31 33 35 38 38 37 40 42 44 42 42 43 48 49 48 49 49 51 53 51 51 50 49 48
19 18 19 23 24 20 20 26 30 31 36 36 37 39 40 42 42 44 46 46 45 49 49 50 52 53 52 51 50 50 48 46
20 19 22 21 23 22 17 12 25 30 34 36 37 38 41 40 41 44 46 48 49 48 48 48 48 51 51 50 49 48 50 53

GFSFLT1_850_spd_087.txt.gz
Wind_Speed
28 24 23 19 17 19 17 15 13 14 17 16 13 12 13 12 21 28 30 35 40 38 44 43 39 43 34 39 34 29 26 28
32 29 28 26 23 23 21 20 17 17 17 15 12 11 9 8 11 18 28 31 35 52 56 51 45 42 35 39 34 30 28 25
36 35 32 30 28 24 24 20 18 17 18 16 16 10 9 13 21 28 37 46 49 54 59 49 47 39 39 38 38 35 32 29
41 39 35 31 27 27 25 21 17 18 20 18 15 12 15 21 25 29 35 42 45 46 44 38 42 39 39 39 38 35 34 32
44 42 37 34 30 27 23 20 19 21 23 21 21 17 24 26 31 31 33 36 39 40 43 41 42 38 35 36 34 34 36 32
45 43 39 36 30 26 24 21 20 24 25 24 22 20 23 32 34 34 33 37 42 39 34 39 40 41 39 35 36 35 32 33
39 43 39 35 29 25 24 22 21 25 26 25 23 25 28 31 34 36 40 38 36 31 35 35 33 35 39 39 37 34 33 33
44 43 39 35 31 28 26 25 24 29 28 28 26 23 28 26 31 40 42 38 36 39 40 38 36 38 38 36 34 32 33 32
44 43 39 35 32 29 27 26 26 32 32 30 28 25 25 25 28 35 42 41 41 40 37 39 42 42 38 36 35 32 32 32
40 40 37 37 31 29 29 28 27 33 34 31 30 28 29 29 31 34 41 43 40 43 43 38 38 40 41 39 36 36 38 35
37 38 40 36 31 29 27 26 27 28 36 33 32 30 30 30 31 36 43 45 41 41 45 46 44 41 40 38 42 41 41 41
14 38 38 37 32 31 28 27 27 29 30 35 34 35 33 29 33 34 36 45 46 41 45 46 51 49 47 45 44 46 44 42
10 25 34 36 34 33 31 28 27 29 30 29 37 38 37 34 34 33 37 38 43 46 45 47 48 49 49 50 50 49 48 48
23 14 30 34 34 32 31 29 28 28 31 31 30 37 41 41 39 37 36 38 40 46 49 50 50 50 52 53 55 55 55 54
30 34 10 28 33 30 31 31 30 26 30 32 34 34 36 42 43 41 41 41 41 44 48 51 53 54 55 58 58 58 58 58
26 27 25 19 4 18 32 30 31 29 28 35 37 36 35 34 39 44 44 45 45 45 47 47 50 54 55 58 62 61 61 61
22 22 24 25 23 16 6 31 32 31 32 33 36 37 37 40 39 40 42 45 47 46 47 49 49 52 54 56 57 60 61 62
20 18 20 22 20 17 14 5 13 34 35 34 35 40 41 41 41 40 43 45 45 49 49 48 50 52 53 53 54 55 56 56
12 12 15 20 22 21 16 12 10 5 33 37 34 36 40 43 42 45 46 46 46 46 49 50 52 55 53 52 52 52 52 53

GFSFLT1_850_spd_093.txt.gz
Wind_Speed
31 37 33 34 37 32 26 22 19 19 17 16 18 20 22 22 24 23 23 30 35 38 41 34 38 37 42 44 44 45 40 33
32 39 37 36 39 34 29 26 23 23 21 19 19 22 23 25 25 28 22 31 34 42 45 43 38 39 41 43 44 48 39 31
29 40 41 40 40 35 32 29 25 24 21 17 17 18 22 21 26 30 33 28 36 36 46 44 37 38 40 41 43 45 38 34
29 41 44 44 43 38 34 31 26 25 20 19 19 20 19 18 23 26 30 35 36 30 49 44 38 44 46 43 44 47 41 35
32 40 46 46 45 40 35 31 27 25 23 21 19 18 18 18 17 20 25 32 35 36 28 34 42 42 46 45 46 47 40 39
32 37 45 49 47 42 36 32 28 25 23 21 18 18 16 13 11 11 14 23 31 34 34 41 45 40 49 47 45 49 43 40
32 34 44 52 49 43 38 33 30 26 25 21 20 19 17 15 17 15 14 16 21 28 34 35 51 49 56 49 51 42 44 37
23 32 41 53 52 46 41 35 32 28 26 22 22 19 18 16 15 17 17 18 19 20 30 42 44 46 47 42 42 46 41 39
25 29 43 51 54 49 43 37 34 29 27 23 22 22 20 18 17 16 17 18 19 21 25 31 39 35 43 46 45 44 45 45
32 36 42 46 55 51 44 38 34 30 28 24 24 25 23 23 21 20 19 19 22 27 30 30 30 37 42 44 44 46 46 42
27 39 43 45 52 47 43 35 32 28 28 24 23 24 25 22 25 26 25 23 25 27 32 31 31 38 40 42 47 47 45 44
22 31 37 41 45 45 41 35 31 28 27 25 24 23 22 21 25 28 28 28 29 31 33 36 35 35 37 39 39 39 45 42
17 20 28 33 38 41 38 34 29 27 26 25 24 24 24 25 26 27 27 29 28 29 35 39 37 34 35 38 39 40 45 45
19 17 19 23 26 30 32 30 29 26 24 24 24 25 26 27 27 27 27 29 29 30 33 40 43 39 38 41 42 43 45 48
25 22 16 9 6 9 15 21 23 23 24 23 24 25 27 27 26 28 29 29 31 32 34 35 37 38 42 43 45 47 49 50
28 28 26 22 15 6 5 10 14 18 23 25 25 23 25 26 27 26 27 29 31 32 34 36 37 40 44 47 47 47 49 51
23 24 26 25 18 17 7 9 13 14 14 20 23 23 24 26 27 29 29 30 31 32 37 38 40 43 45 46 49 51 52 53
21 24 23 20 19 15 13 9 4 4 12 13 14 19 23 25 26 30 32 33 33 36 37 37 40 43 44 44 45 48 49 51
16 19 20 19 17 14 9 7 8 7 6 11 11 13 17 21 21 24 27 32 37 41 42 42 40 40 41 42 43 43 46 49

GFSFLT1_850_spd_096.txt.gz
Wind_Speed
22 23 31 39 38 36 33 30 24 20 19 20 19 21 22 20 21 21 20 29 28 25 29 26 28 33 31 36 38 38 37 33
22 23 27 40 42 40 38 34 29 25 24 23 22 23 23 23 24 23 22 24 32 32 29 33 30 34 33 37 40 40 37 35
27 25 26 37 43 43 40 38 33 29 25 22 22 21 21 22 22 24 28 24 27 35 37 32 36 37 37 40 44 42 38 36
29 26 25 37 43 44 43 41 35 31 26 24 22 21 20 25 26 31 31 32 25 33 36 34 36 35 38 39 43 45 44 37
30 26 24 35 44 44 43 42 37 32 28 24 24 22 21 23 22 21 28 35 36 29 29 34 34 34 39 42 46 45 47 45
28 24 18 28 43 45 45 42 37 32 28 24 23 21 20 18 17 20 23 26 29 31 33 32 34 35 37 42 44 47 47 48
24 16 16 26 39 44 44 43 38 34 28 25 23 20 20 19 17 15 13 14 26 27 27 32 32 30 32 37 47 46 48 49
16 17 19 28 40 46 45 44 40 34 29 26 23 19 20 19 15 16 14 13 16 26 28 32 33 28 36 34 45 49 48 48
20 22 19 31 39 46 47 46 41 36 30 26 23 19 21 18 15 17 15 16 14 16 20 22 28 33 34 41 51 56 52 45
15 15 23 33 39 44 49 46 42 36 28 25 24 21 21 18 16 16 15 15 14 12 12 13 17 22 28 37 46 45 51 48
12 17 24 31 34 38 44 45 41 35 27 24 23 20 20 18 17 18 17 14 16 15 12 15 19 22 28 34 41 45 46 48
5 11 19 24 29 33 39 42 38 31 26 21 22 19 19 18 18 18 18 17 15 15 19 19 20 20 27 38 41 42 43 43
7 8 10 16 21 26 32 35 33 28 23 18 17 17 17 17 17 19 19 20 20 18 19 22 26 25 25 28 34 39 38 43
18 12 9 10 15 20 27 29 27 24 19 17 16 13 17 17 16 17 18 21 22 22 23 25 27 30 31 30 32 34 37 40
30 31 20 12 8 8 14 17 18 16 17 17 15 12 12 16 15 15 19 21 22 22 24 25 27 30 34 37 36 33 37 39
32 31 27 22 15 11 10 8 10 12 15 16 17 14 10 10 17 17 16 17 20 22 24 26 27 30 34 40 42 41 40 42
26 26 28 24 26 17 11 10 9 7 8 9 12 14 14 13 12 14 17 18 18 19 21 25 29 31 32 33 35 37 38 42
27 28 25 25 20 17 14 14 6 7 9 9 10 10 11 12 12 14 16 18 17 19 21 24 26 27 29 32 34 36 39 41
23 21 23 21 16 13 13 11 10 10 9 7 5 7 10 12 14 16 18 20 22 19 19 19 23 27 29 29 31 35 39 41

GFSFLT1_850_spd_099.txt.gz
Wind_Speed
19 18 20 24 30 32 35 36 33 29 26 21 21 21 22 21 20 20 19 22 23 22 19 18 18 32 30 33 35 34 29 28
29 25 21 21 27 32 35 39 36 33 30 26 24 24 25 25 22 21 18 22 27 25 22 23 21 24 28 31 34 30 27 27
35 32 27 26 28 34 36 41 38 36 33 27 24 22 23 24 24 24 23 22 24 30 30 27 26 25 31 30 41 41 42 40
34 36 30 29 30 36 38 42 41 39 35 30 25 22 22 22 24 26 25 23 27 27 30 29 31 31 34 33 36 42 45 43
35 36 34 35 33 34 39 41 42 41 38 33 27 21 22 20 21 23 25 26 28 25 31 31 27 28 35 38 38 46 46 45
31 37 37 36 34 35 37 39 41 42 40 33 28 23 19 17 18 22 24 27 32 30 28 34 32 32 32 44 42 44 46 45
27 30 33 34 29 32 36 39 41 44 40 33 28 21 19 20 18 20 22 23 26 32 32 33 23 32 35 32 38 45 46 48
18 19 28 31 30 31 35 36 41 44 41 34 27 22 19 18 17 18 20 16 17 24 27 30 32 30 30 30 40 43 49 46
19 15 25 30 29 31 34 35 42 44 41 34 27 22 19 18 17 16 15 12 11 13 26 22 27 30 30 27 30 31 44 51
22 15 22 28 26 31 31 34 40 42 39 32 28 23 20 19 14 14 15 13 11 12 17 26 26 26 23 28 30 39 45 49
16 14 19 25 25 27 27 30 36 40 37 30 27 22 18 17 15 15 14 16 14 11 11 17 18 19 19 22 26 31 43 47
16 9 9 16 20 24 26 26 32 37 32 28 26 21 17 17 16 15 16 14 15 14 10 7 10 16 15 19 22 27 35 42
13 8 3 8 16 20 23 26 30 31 29 24 22 19 16 16 16 17 16 16 15 12 12 12 13 13 14 17 22 25 30 37
27 17 9 9 12 16 21 23 26 27 24 19 16 16 15 15 15 16 17 17 17 16 15 16 18 18 18 17 18 24 26 28
25 30 27 19 12 13 14 19 19 19 17 14 10 8 8 14 15 15 15 15 17 18 18 18 19 20 22 23 24 24 28 32
25 32 30 25 24 20 18 16 13 13 10 8 7 6 5 7 15 15 14 15 16 17 18 18 19 21 23 24 27 29 31 31
26 26 31 32 28 23 18 15 12 8 7 6 3 5 6 6 7 14 16 15 14 15 17 17 19 21 22 22 24 28 32 36
23 25 28 27 28 28 26 24 15 12 10 10 7 6 9 10 8 7 10 13 16 18 18 19 18 17 16 17 21 26 29 32
22 24 27 26 25 24 23 21 16 15 12 6 8 8 8 10 12 15 16 17 17 15 16 16 17 24 20 20 18 20 25 28

GFSFLT1_850_spd_102.txt.gz
Wind_Speed
19 19 18 17 18 20 24 27 32 34 31 27 20 23 23 22 20 21 20 21 24 23 21 20 16 24 30 41 44 41 38 25
26 23 21 18 18 21 24 27 30 35 35 33 29 27 25 26 23 20 21 21 21 23 22 17 15 26 27 26 41 40 40 31
30 29 28 23 22 23 24 27 31 37 38 35 30 27 26 26 24 22 21 21 21 25 26 20 18 22 27 23 36 43 41 31
32 33 33 30 26 28 27 27 30 35 35 32 29 26 26 28 26 25 23 21 22 22 31 25 22 22 26 29 28 29 31 32
27 30 31 31 28 28 26 26 31 32 34 36 37 31 28 23 22 23 24 24 26 25 22 31 32 28 27 31 34 39 40 36
22 26 28 30 28 24 26 26 30 32 37 38 35 27 20 16 18 19 22 21 24 23 26 35 37 30 30 33 34 41 42 39
15 16 22 27 28 26 25 27 32 34 38 39 36 29 22 16 17 16 16 22 20 27 25 28 29 28 30 35 36 35 43 41
18 16 15 23 27 27 25 28 34 40 44 39 36 32 24 18 15 15 15 18 19 21 30 28 32 33 31 28 34 36 40 38
22 19 15 17 22 24 26 30 33 40 44 40 36 29 22 17 16 14 14 14 15 17 23 29 29 29 29 29 30 34 41 41
26 19 14 12 19 21 23 27 29 35 41 41 37 29 22 17 15 15 14 13 14 14 18 23 24 24 25 28 25 28 30 36
27 21 13 10 14 16 21 26 30 32 36 39 35 29 22 17 15 15 13 14 13 13 16 21 22 20 26 27 26 28 26 34
25 23 13 2 9 14 20 24 29 30 37 36 32 26 22 19 15 15 15 15 17 14 14 16 19 21 23 24 24 28 30 33
28 22 13 4 7 12 18 24 27 28 33 31 28 24 22 18 16 16 16 16 19 18 15 14 15 16 18 18 19 19 21 24
29 29 15 8 7 11 15 18 22 26 25 30 27 24 21 17 16 16 17 17 18 19 18 18 16 15 14 12 12 13 15 17
29 30 22 14 13 10 12 16 19 21 24 26 23 22 18 16 15 16 17 18 17 18 17 16 17 17 17 16 16 14 15 17
27 29 27 18 17 13 15 15 15 21 21 20 18 18 15 16 16 15 15 16 17 17 17 17 18 20 22 23 23 22 22 21
29 25 26 26 21 20 17 19 22 22 22 19 16 14 12 11 10 15 15 15 15 15 16 17 17 17 18 20 21 23 25 27
22 25 27 28 26 23 23 20 17 19 18 18 17 16 16 14 11 9 11 13 13 15 15 15 15 17 22 22 22 24 22 25
22 25 26 27 24 23 25 23 19 19 18 17 14 13 13 11 11 11 12 14 16 17 18 17 19 23 22 21 23 26 29 29

GFSFLT1_850_spd_105.txt.gz
Wind_Speed
22 26 29 29 27 24 26 27 26 26 26 23 19 19 25 19 18 17 18 20 22 23 25 25 24 25 25 27 28 39 31 36
23 24 26 26 24 23 26 29 28 28 32 29 25 25 27 24 23 20 16 17 20 24 22 24 22 21 20 22 29 31 36 36
28 28 26 27 27 24 26 29 28 31 31 29 24 29 27 21 23 22 23 18 19 20 22 23 20 17 15 20 36 38 33 38
26 28 30 30 29 27 26 27 29 30 26 24 24 21 21 24 23 25 23 19 20 21 22 24 20 16 13 21 31 33 40 34
18 25 30 31 33 31 28 27 29 30 28 27 30 26 25 24 24 23 22 22 22 23 23 24 23 17 17 24 21 33 39 40
15 19 24 29 32 33 31 30 30 31 32 31 32 27 22 17 18 17 22 21 24 24 22 21 28 22 18 20 24 26 33 40
14 16 18 24 29 34 33 32 32 33 33 35 35 29 24 21 20 18 22 21 24 21 22 24 23 29 32 26 27 30 31 37
18 20 20 21 25 31 33 31 34 35 35 35 34 29 25 24 21 18 16 19 20 20 23 24 28 28 32 33 31 31 35 43
19 19 22 20 23 28 34 34 33 34 34 34 33 28 26 22 20 17 17 17 19 22 23 24 23 28 31 29 27 24 39 38
22 22 22 19 20 24 28 29 30 31 34 35 33 31 26 22 21 18 17 16 15 16 18 23 25 26 26 26 26 25 32 43
21 22 19 19 17 17 21 24 26 30 37 39 33 30 25 22 19 19 18 20 17 17 17 21 24 24 22 25 27 23 27 27
20 21 16 17 11 10 17 20 24 30 31 40 34 27 25 22 19 19 19 17 16 15 16 19 19 24 21 21 22 23 24 24
19 21 18 13 17 5 13 20 22 25 29 35 34 26 26 22 19 18 20 18 17 16 17 19 19 22 23 26 24 23 23 24
22 22 23 24 15 7 7 17 20 21 25 30 30 27 27 21 18 19 21 18 19 17 15 16 17 19 21 23 22 22 23 22
26 26 24 30 21 9 3 11 14 16 19 24 30 28 23 19 17 19 19 19 19 19 17 17 16 17 16 16 15 16 16 18
29 29 26 34 29 13 8 13 13 14 17 20 25 24 20 19 18 19 18 17 17 16 17 15 14 15 16 16 14 14 15 15
26 28 33 32 31 19 13 12 15 19 23 22 21 21 20 21 20 19 18 17 14 14 14 14 14 14 18 18 18 17 17 16
27 29 32 30 30 25 20 15 17 19 21 22 23 23 22 21 18 16 16 16 14 10 12 13 17 21 20 20 19 19 19 17
24 27 30 30 32 27 27 23 19 17 18 16 16 20 21 22 22 21 20 20 18 16 17 17 19 22 22 22 21 20 21 25

GFSFLT1_850_spd_108.txt.gz
Wind_Speed
31 31 32 33 32 29 31 35 30 29 29 30 28 26 25 22 21 16 15 17 20 21 22 21 20 20 23 24 25 25 25 27
21 20 24 31 31 35 27 34 32 31 31 36 31 31 29 30 23 19 16 16 15 20 21 23 22 24 24 22 22 21 25 27
23 22 26 27 29 29 23 27 32 31 32 36 33 29 35 32 30 26 20 15 17 19 21 26 25 22 22 22 20 20 24 33
29 29 29 24 29 27 26 23 25 30 35 36 29 29 34 29 28 26 24 22 21 21 21 24 22 21 19 17 17 18 30 38
9 14 18 19 20 24 31 33 31 32 34 33 36 39 41 37 31 27 24 23 23 20 22 23 21 20 19 16 16 16 33 24
9 13 17 20 20 19 23 33 35 35 38 37 35 35 37 31 28 27 26 21 23 23 23 25 22 20 18 16 17 22 23 34
10 13 13 14 19 26 26 26 37 37 41 37 35 37 30 28 25 29 25 25 22 24 23 25 23 20 21 17 18 19 21 36
17 21 21 24 22 18 30 30 34 40 40 40 38 37 34 29 26 27 25 24 24 27 26 26 27 22 26 23 19 18 21 28
15 17 22 23 23 23 16 30 30 38 37 41 39 35 39 28 29 32 24 20 21 23 24 24 25 24 26 25 27 22 23 25
17 19 23 23 22 24 23 21 30 35 35 39 35 35 34 31 33 29 22 21 16 19 25 26 25 25 25 27 30 31 27 28
21 23 27 24 21 22 18 22 28 32 29 36 36 35 32 31 27 27 26 22 19 16 22 24 27 24 22 24 27 26 27 28
21 23 27 26 19 14 4 3 14 16 24 33 33 34 34 29 28 29 26 28 24 18 22 24 25 26 25 23 24 26 26 26
21 23 28 26 20 17 9 12 9 19 25 32 34 32 33 27 28 27 29 26 22 16 20 19 26 22 23 21 20 23 24 25
25 26 30 29 21 18 9 9 9 10 11 20 27 32 33 29 26 25 23 20 19 18 18 18 20 22 23 22 21 22 18 18
25 30 33 31 23 21 15 7 2 11 13 17 28 34 25 27 25 24 19 20 21 18 17 15 17 18 21 22 22 23 22 21
27 30 32 37 29 26 19 12 3 9 13 17 24 29 26 26 22 22 18 19 21 21 20 17 16 16 16 15 17 16 16 15
28 31 32 34 40 32 27 19 12 7 12 16 20 24 23 22 22 19 18 19 19 20 20 17 13 21 19 17 16 13 11 11
25 31 33 30 32 37 35 29 20 16 13 14 16 18 23 24 22 21 20 19 17 19 19 22 21 19 17 17 17 15 14 18
21 24 27 29 30 31 30 33 34 29 23 15 13 15 19 22 23 25 25 25 24 25 25 24 23 22 20 20 19 20 22 21

GFSFLT1_850_spd_111.txt.gz
Wind_Speed
40 39 34 32 33 32 36 44 46 41 36 32 31 30 30 26 22 20 18 19 21 23 23 24 23 23 22 25 27 26 26 24
38 38 35 36 33 34 32 36 44 46 40 36 33 32 30 29 27 23 19 17 17 22 24 24 24 23 23 25 26 26 26 23
10 7 21 21 27 31 24 30 38 46 42 36 33 33 32 31 31 27 23 19 17 20 24 24 24 24 26 25 27 25 24 22
24 18 16 17 19 27 31 28 36 45 40 35 33 29 29 33 37 35 29 22 20 21 23 24 26 27 27 26 25 26 25 26
10 7 6 8 3 6 17 29 32 40 38 33 33 35 36 43 44 40 33 29 26 24 24 24 25 25 23 25 24 23 22 25
18 15 11 7 1 5 6 16 35 41 39 33 32 33 33 41 42 40 36 35 30 28 27 26 26 22 21 22 22 21 22 26
16 12 8 9 8 8 9 14 8 36 38 34 34 35 31 41 40 37 35 32 35 34 30 28 27 22 20 22 20 20 21 27
24 21 19 18 21 19 16 17 21 19 41 40 40 38 32 37 40 39 35 35 34 37 32 30 27 23 20 23 20 21 24 23
26 26 23 22 22 21 22 23 24 24 34 44 42 41 36 37 38 35 32 33 34 32 29 28 23 23 21 22 22 20 22 22
27 26 26 23 22 20 20 22 25 25 22 41 44 41 38 39 36 33 29 28 29 31 28 27 25 24 23 23 26 24 23 23
26 28 28 25 24 24 18 15 19 27 23 35 43 41 37 36 35 33 30 27 25 24 27 28 25 23 24 22 26 27 28 25
28 29 29 27 25 23 17 12 6 14 25 35 39 39 36 34 34 32 31 29 26 23 23 26 26 25 23 22 25 28 31 30
35 32 32 31 30 25 19 13 9 4 3 26 28 30 33 34 31 31 31 28 25 24 24 27 26 24 24 24 25 25 28 27
34 36 37 36 34 31 22 14 9 7 5 5 20 25 30 30 31 29 31 30 26 25 22 24 24 24 24 24 23 24 24 27
29 34 36 37 40 36 29 18 11 5 5 5 7 16 27 28 30 30 31 27 25 22 20 22 23 25 21 24 21 20 20 22
30 32 33 37 39 42 36 24 17 10 4 4 11 16 17 25 29 29 27 24 22 20 17 17 18 20 22 23 22 21 22 20
29 30 32 34 36 36 40 35 25 16 11 1 3 10 20 21 29 26 23 19 21 22 18 17 21 20 20 20 21 22 21 20
26 29 28 28 30 32 33 36 34 32 25 18 9 7 17 23 25 25 23 21 24 26 26 23 22 21 20 19 17 16 17 18
26 26 25 25 25 28 29 30 33 34 38 37 28 18 13 12 25 29 28 28 26 27 27 26 25 24 21 21 21 21 22 24

GFSFLT1_850_spd_114.txt.gz
Wind_Speed
35 35 36 33 32 37 29 34 39 43 44 40 36 32 29 28 27 26 25 25 23 23 24 25 26 26 27 27 26 26 26 25
33 34 35 41 37 35 36 31 34 46 51 45 42 36 34 33 33 28 27 26 25 24 25 26 28 29 27 27 27 26 28 25
36 37 35 41 44 44 41 33 32 41 54 52 46 41 37 34 32 29 28 26 26 26 25 25 28 29 27 26 28 28 27 27
12 13 11 10 11 19 25 33 34 37 47 54 46 40 35 33 33 32 31 27 25 26 26 26 26 27 28 28 29 29 29 29
16 16 14 12 10 8 8 22 33 39 46 56 52 46 41 39 37 35 33 29 27 27 26 27 26 27 28 29 31 31 30 30
22 19 15 13 10 8 11 9 24 32 42 53 52 47 40 37 34 35 35 33 30 29 27 28 28 27 29 28 32 32 31 30
23 21 16 14 12 8 3 4 5 25 32 38 43 42 40 42 38 38 37 36 33 33 32 31 30 28 29 29 30 28 30 28
28 26 21 17 13 13 13 9 6 11 29 34 38 40 41 39 39 36 36 39 38 36 37 36 33 30 30 28 28 27 27 24
30 27 24 21 18 17 17 17 14 11 19 36 42 44 48 41 40 33 35 38 38 36 38 38 34 30 29 26 26 26 23 22
31 28 26 23 21 19 19 18 15 14 13 22 40 47 51 45 41 33 30 31 30 30 35 39 35 31 27 28 26 26 24 24
37 34 31 26 24 22 18 16 17 11 11 15 25 38 48 46 41 35 30 29 26 26 30 33 33 31 30 27 26 27 26 26
41 40 34 28 24 23 21 20 16 14 9 10 19 28 43 47 41 37 33 31 24 23 27 29 32 31 30 29 25 27 27 27
39 40 38 35 31 29 27 25 19 15 12 6 11 26 35 40 39 36 34 33 28 25 26 27 28 30 29 28 28 27 27 29
38 36 38 40 38 35 33 29 25 17 12 7 3 12 22 33 32 32 33 32 30 27 25 26 25 27 28 27 26 25 24 28
33 36 37 37 39 40 38 35 30 21 14 8 5 6 12 19 25 29 32 31 29 27 26 24 22 25 26 25 26 25 25 26
35 36 36 36 37 38 40 40 37 29 19 15 8 6 7 13 16 24 29 29 30 28 27 25 22 26 26 23 26 26 24 25
27 29 32 34 34 35 36 38 40 40 28 21 16 6 4 13 19 26 29 30 30 26 25 22 27 27 25 25 24 23 24 24
29 29 30 31 34 33 34 33 33 37 41 34 27 19 10 6 14 28 28 28 28 23 26 25 26 24 23 22 23 24 24 23
29 27 26 25 26 27 26 28 30 31 34 36 38 32 27 18 9 20 24 29 31 29 28 26 28 28 23 21 20 21 23 24

GFSFLT1_850_spd_117.txt.gz
Wind_Speed
40 30 28 28 29 29 31 31 30 35 41 40 37 36 34 33 32 31 29 27 25 23 24 24 25 27 28 28 28 27 26 24
35 30 32 31 32 35 35 34 33 36 45 45 45 41 36 35 34 32 30 28 26 25 23 25 27 29 30 28 27 27 25 24
28 22 22 22 22 27 32 33 32 35 40 42 49 45 42 38 35 32 29 30 28 28 26 27 28 29 30 29 28 27 28 27
13 8 9 10 15 17 18 22 32 34 39 44 50 46 43 38 34 33 32 32 31 30 28 28 29 29 32 30 30 30 27 29
14 10 10 12 10 7 12 21 28 34 40 41 45 49 47 41 40 38 39 35 34 32 30 30 29 29 30 31 31 31 29 30
21 16 13 14 12 12 9 15 23 28 29 35 39 42 43 42 43 40 41 36 35 35 33 31 30 31 30 30 28 28 30 31
21 17 15 15 13 13 11 8 12 17 23 29 33 37 39 40 37 42 41 36 35 36 35 33 31 30 31 29 29 28 30 32
25 24 22 20 17 13 9 7 5 7 20 25 32 35 36 35 40 47 40 33 36 37 39 37 35 31 30 29 30 32 32 33
25 26 27 24 21 17 13 7 3 5 9 20 30 36 38 38 38 41 41 36 33 38 40 39 36 32 31 30 30 32 32 33
27 33 31 27 25 22 18 14 11 10 10 16 21 30 36 41 40 42 42 39 36 36 38 37 38 34 32 33 31 31 29 29
32 37 36 31 26 23 19 16 15 12 11 11 21 25 31 42 44 43 43 42 40 34 33 37 37 34 33 32 30 26 29 28
34 40 40 36 31 27 23 20 16 11 10 9 13 22 28 34 41 44 42 43 41 34 31 32 33 33 34 32 30 27 26 27
36 40 40 40 39 35 31 24 22 18 15 11 7 9 17 21 30 29 39 41 39 34 31 29 30 30 33 32 30 27 27 28
42 40 41 42 41 41 39 31 25 23 20 13 9 3 8 15 23 25 27 32 34 33 33 30 29 29 30 31 28 27 25 27
39 40 41 38 38 41 40 39 31 26 24 20 15 10 6 8 17 22 27 28 30 32 32 32 29 27 26 26 27 29 26 25
33 33 34 36 38 36 35 37 39 34 30 26 22 18 8 8 7 14 17 23 27 30 31 31 28 23 23 25 27 26 26 27
26 29 31 33 33 33 33 34 36 39 39 35 30 24 16 11 7 9 15 19 25 31 26 31 30 27 26 25 26 27 26 25
25 28 28 28 29 32 32 32 32 34 36 39 37 34 30 23 14 7 9 14 22 29 29 32 31 28 26 25 26 27 23 26
26 23 24 24 24 24 28 29 30 31 33 34 35 36 35 32 28 25 18 12 4 15 28 33 29 27 24 23 23 25 28 26

GFSFLT1_850_spd_120.txt.gz
Wind_Speed
36 35 31 33 50 50 45 43 39 38 39 37 33 35 35 34 34 32 32 31 28 27 25 24 25 27 28 28 27 27 27 25
32 35 33 30 31 44 49 50 45 45 43 43 41 40 37 35 35 34 32 32 30 29 27 25 26 29 29 27 25 26 25 23
17 14 21 27 33 33 36 41 42 43 44 41 42 42 41 39 36 35 35 32 30 31 29 28 26 29 30 28 27 26 26 24
7 8 10 18 19 24 28 34 38 40 40 41 42 41 41 42 40 40 36 32 30 32 32 30 28 28 31 29 29 28 27 27
13 10 7 7 3 10 19 25 32 39 40 41 40 40 40 41 43 44 37 35 30 33 32 32 31 30 32 31 30 30 30 30
15 11 10 6 7 6 12 18 27 33 34 32 36 37 38 37 36 36 40 41 39 32 31 32 32 32 32 32 32 34 30 32
19 17 16 17 13 12 12 11 15 20 26 27 30 30 33 35 36 34 36 39 38 34 32 33 33 34 34 34 33 32 31 30
26 23 21 19 16 16 14 9 9 15 20 25 28 29 30 33 35 36 36 35 30 30 35 36 36 38 36 34 35 33 31 30
26 27 26 22 20 17 15 9 7 6 10 19 25 29 31 33 35 38 37 34 34 35 39 39 40 40 38 36 34 34 32 33
26 29 31 26 24 21 16 13 10 5 1 5 12 22 32 36 36 37 38 36 35 33 35 33 39 42 40 37 35 35 35 33
28 34 35 33 27 23 20 18 16 11 5 7 10 15 20 28 39 41 40 39 37 43 38 35 36 38 38 36 36 36 35 34
31 35 36 39 36 32 27 23 18 14 10 7 9 14 17 23 27 33 38 39 37 37 37 37 36 34 34 37 38 36 37 34
30 37 42 41 42 42 38 30 22 18 16 12 10 10 11 13 15 20 26 30 35 38 39 36 34 32 33 36 39 36 37 34
36 34 39 41 40 42 43 40 35 25 20 17 15 13 9 9 11 15 18 20 24 29 33 33 34 34 35 35 35 37 36 31
37 42 40 42 42 41 40 40 40 35 29 24 20 18 16 12 8 12 14 17 18 23 26 31 32 34 36 34 32 37 34 29
34 36 36 36 39 38 35 35 36 38 38 35 30 24 20 16 13 6 8 14 18 21 22 24 29 33 35 31 27 33 31 28
29 32 33 35 34 37 34 34 34 34 36 39 37 35 30 25 20 16 10 7 10 15 19 25 27 32 35 31 27 27 26 28
29 30 31 32 29 28 33 32 30 31 33 34 34 36 36 35 30 25 22 18 11 7 10 17 21 30 38 26 26 25 26 26
27 26 26 26 25 24 26 31 31 31 32 31 32 33 33 33 33 33 31 27 23 19 10 13 7 12 25 26 29 28 26 26